ECMWFFLT1_700_spd_000.txt.gz
Wind_Speed
3 3 3 4 4 4 6 7 7 6 5 5 5 6 7 8 9 10 11 12 13 14 15 17 18 20 21 21 22 22 23 24 25 25 25 26 27 27 27 26 25 25 24 23 23 23 22 21 20 21 22 22 22 23 23 23 23 23 22 20 18 18 18
4 4 4 5 5 6 8 9 10 9 8 7 6 6 6 7 7 8 9 10 11 11 12 14 15 16 17 18 18 19 19 20 22 23 23 24 25 26 27 27 27 27 27 27 27 27 27 27 25 24 25 25 23 23 24 25 25 25 25 23 22 20 20
5 5 5 5 6 8 9 10 10 11 10 9 9 8 8 7 8 9 9 9 9 9 10 11 12 13 15 15 16 16 17 17 19 19 20 21 22 23 24 24 25 26 27 28 29 29 29 29 29 28 28 28 27 25 24 25 25 26 27 26 25 23 22
5 6 6 6 8 10 10 10 10 10 10 10 10 10 10 9 9 10 10 10 10 9 9 10 10 11 12 13 13 14 14 15 16 16 17 17 18 20 21 22 23 24 25 26 27 28 29 29 30 30 29 30 29 27 27 28 28 27 28 28 27 25 24
5 5 7 8 10 10 10 10 9 9 9 9 10 10 10 10 10 10 11 11 11 11 11 10 11 11 12 13 13 13 13 13 14 14 15 15 16 17 18 19 20 22 23 25 26 27 28 29 29 30 29 30 30 27 28 30 30 31 31 29 28 27 26
5 5 6 8 9 9 9 9 8 8 8 8 9 10 10 10 11 11 11 11 11 12 12 12 12 12 13 14 14 14 14 14 14 14 14 15 16 16 17 18 19 20 21 22 24 25 26 27 29 29 29 30 30 28 28 28 28 31 32 31 30 29 28
4 4 5 6 7 7 8 8 7 7 8 8 8 9 10 10 10 11 11 11 12 12 13 13 13 14 14 15 16 16 16 16 16 16 16 16 16 16 17 18 19 20 20 21 22 23 24 25 26 28 29 29 29 29 29 29 29 29 29 31 34 34 32
4 4 4 5 5 6 7 7 8 7 8 9 9 9 10 10 10 11 12 12 12 13 14 14 15 15 16 16 17 18 18 18 18 18 17 17 17 18 18 19 19 20 20 20 21 21 22 23 24 26 27 28 28 28 28 29 29 28 27 28 31 34 36
4 3 3 5 6 6 6 7 9 9 9 10 10 10 10 10 10 11 12 13 13 14 15 15 16 16 17 18 18 18 19 19 19 19 19 19 19 19 20 20 21 21 22 22 22 22 22 22 23 24 25 27 27 27 27 27 27 27 28 28 27 28 32
4 4 5 6 7 7 7 7 8 9 10 11 11 11 10 10 10 11 12 13 14 15 16 16 17 17 18 18 19 19 19 19 19 19 19 19 19 19 20 20 21 21 22 22 23 24 24 24 24 25 25 27 28 28 28 28 27 26 26 28 28 26 28
6 5 7 8 9 8 8 8 8 9 10 11 12 12 11 11 10 10 11 12 14 15 16 17 17 18 18 19 19 20 20 20 20 19 19 19 18 18 19 19 20 20 21 21 22 24 25 25 26 27 27 28 29 31 31 30 29 27 26 28 28 28 28
8 8 9 11 10 9 9 9 9 9 10 10 11 12 12 12 11 10 11 11 13 14 15 16 17 18 18 19 19 20 20 20 20 20 20 19 19 18 18 18 18 18 18 19 20 22 23 25 26 27 28 29 31 32 33 34 33 30 29 30 29 29 30
12 12 12 12 12 11 11 11 10 11 11 11 12 13 13 13 12 12 12 12 13 14 15 16 16 17 18 18 19 19 19 19 19 19 19 19 19 18 17 17 17 17 17 18 19 20 22 23 25 26 27 29 30 32 34 36 36 32 30 32 32 30 31
16 16 15 15 15 14 14 13 12 13 13 13 14 14 14 14 13 13 13 14 15 15 16 16 17 17 18 18 19 19 19 19 18 18 18 18 18 18 18 18 19 19 19 19 20 21 22 23 24 25 27 28 30 32 34 36 37 35 31 32 34 33 33
21 20 19 19 18 17 17 16 15 15 15 15 16 17 17 16 16 15 15 15 16 17 17 18 18 19 19 19 19 19 18 18 18 18 18 18 19 19 20 20 21 22 22 23 24 24 25 25 26 26 27 28 29 31 34 36 38 37 32 30 33 34 34
24 25 23 23 22 21 20 19 18 18 17 18 19 19 20 20 19 18 18 18 18 18 19 19 20 20 20 20 20 19 19 19 18 18 19 19 20 21 21 21 22 23 24 25 26 28 28 28 29 29 29 30 30 31 34 36 37 38 36 32 32 34 34
25 27 27 26 25 24 23 22 22 21 21 21 22 21 22 22 22 21 21 22 22 21 21 21 22 22 21 21 21 20 20 20 20 20 21 21 22 22 23 23 24 24 25 26 26 28 29 30 30 31 31 32 33 32 34 36 37 38 38 35 32 34 36
26 28 30 31 30 28 27 26 25 25 25 25 25 25 24 23 23 24 25 25 25 26 25 25 24 24 24 24 23 22 23 23 23 23 23 24 24 25 25 25 26 27 27 27 26 27 28 30 31 31 32 33 34 35 35 37 38 39 39 37 33 34 36
28 28 32 33 33 32 31 29 29 29 29 29 29 28 27 26 26 26 27 28 28 30 30 29 28 28 27 27 26 25 26 25 26 26 26 26 27 27 28 28 28 29 29 29 28 28 29 30 31 32 33 34 34 36 37 38 39 40 40 39 36 34 35
28 30 33 34 33 35 35 34 33 33 31 31 31 31 30 29 28 29 30 30 30 32 33 33 33 31 31 30 29 28 28 28 28 28 28 28 29 29 30 30 30 30 30 30 30 31 31 32 33 33 35 35 36 37 38 39 40 41 42 42 39 36 35
30 31 35 37 35 34 35 37 38 37 35 34 33 32 32 32 31 31 31 32 32 33 34 35 35 34 34 33 32 31 30 30 30 30 30 30 31 31 31 31 32 32 32 32 33 33 34 34 34 34 35 36 38 39 40 41 41 43 43 43 42 40 38
33 33 36 38 38 37 37 38 40 40 40 39 36 34 33 34 33 32 33 34 34 34 35 36 36 36 36 36 35 34 33 32 31 31 31 32 32 33 33 33 33 33 34 34 35 35 36 36 36 36 36 37 38 40 41 42 43 44 45 45 45 43 41
35 36 36 38 40 40 42 43 42 42 42 42 41 39 37 36 35 35 35 36 36 36 37 36 36 36 37 37 37 36 35 34 33 33 33 33 33 33 34 34 35 35 35 36 37 37 38 37 38 38 38 38 39 40 42 43 44 45 46 47 47 46 44
35 37 38 39 41 44 46 46 44 43 43 42 42 42 41 39 38 38 39 40 39 39 38 37 37 37 38 37 37 37 36 35 34 34 34 34 34 34 35 36 36 37 38 39 39 40 40 40 40 40 41 41 41 42 43 43 44 45 47 48 49 48 47
35 36 38 40 43 47 48 46 45 46 47 46 46 45 44 43 42 42 43 44 42 41 39 38 38 38 38 37 37 37 37 36 35 35 35 36 36 37 37 38 39 40 41 41 42 42 42 42 42 42 43 43 43 43 44 45 45 46 47 48 49 49 49
35 35 37 39 43 47 46 43 44 47 49 49 49 46 45 45 44 43 45 46 44 41 39 38 38 38 38 37 37 38 37 37 37 36 37 38 38 39 40 41 42 43 43 43 44 44 44 43 43 43 43 44 44 43 44 45 46 47 47 48 49 49 48
35 35 36 39 43 45 44 43 45 48 48 46 45 43 43 43 43 42 44 45 42 39 38 38 38 37 37 37 38 38 38 38 38 38 39 40 40 41 42 43 44 45 45 45 45 45 45 45 44 43 43 44 44 44 44 45 47 47 48 49 50 49 47
36 36 36 38 39 40 41 45 48 48 44 39 36 38 40 41 40 41 41 39 36 36 37 37 37 37 37 38 39 40 40 40 40 40 41 42 42 43 44 45 46 47 47 47 46 46 46 46 45 45 44 44 45 45 45 46 47 48 49 50 51 51 49
38 38 38 38 37 35 37 40 43 42 39 34 34 37 38 38 38 37 34 31 31 33 35 36 37 37 38 40 40 41 42 42 42 42 42 43 44 44 45 46 47 48 48 48 47 47 46 47 47 47 47 47 46 47 47 47 48 49 50 51 52 53 52
37 38 39 39 38 36 36 39 41 40 37 34 35 35 35 36 35 33 29 27 28 31 33 36 37 38 39 41 42 43 43 43 43 43 44 44 45 45 46 47 48 49 49 49 48 47 47 48 49 49 50 50 49 50 50 49 50 50 51 52 53 54 54
37 36 37 37 36 35 37 39 40 38 34 32 32 32 33 32 30 28 26 25 26 29 33 36 37 38 39 40 42 43 44 44 44 44 45 46 46 47 47 48 49 50 50 49 49 49 49 49 50 51 51 52 52 52 51 51 50 51 53 53 54 55 55
36 35 34 34 35 34 33 33 34 33 32 31 29 29 31 30 29 27 25 25 26 29 32 34 36 37 38 39 41 43 43 44 45 45 46 47 48 48 48 48 49 49 49 49 50 50 50 51 51 51 52 53 53 53 52 51 51 52 53 54 54 55 54
33 32 31 31 31 30 29 30 33 34 31 28 27 28 29 29 28 26 25 25 27 29 31 32 34 36 37 39 40 42 44 45 46 46 48 49 49 49 49 48 48 49 49 50 50 51 51 51 52 52 52 53 53 53 52 51 52 53 53 54 54 54 54
31 28 26 26 27 28 28 30 32 32 30 27 27 27 27 26 25 24 24 25 25 27 30 31 33 35 37 40 41 43 45 46 47 48 49 49 49 49 49 49 49 49 50 50 50 51 52 52 52 52 52 53 52 52 52 53 53 54 54 55 55 55 55
30 27 27 28 29 28 26 27 29 29 27 25 24 24 24 23 22 22 23 24 25 27 29 32 34 36 38 41 42 43 45 46 46 48 49 49 49 49 49 49 50 50 50 51 51 52 52 52 53 53 52 52 51 52 53 54 55 56 57 56 57 57 58
30 30 31 29 26 23 23 24 26 27 25 23 23 23 21 21 21 21 23 24 26 29 31 33 35 37 39 41 41 42 44 45 45 46 47 48 49 49 49 50 50 51 51 52 52 53 53 53 53 53 52 52 52 53 54 55 56 57 58 58 58 58 58
33 33 32 28 24 25 26 26 26 25 24 23 21 20 19 19 21 22 24 26 28 30 32 34 35 37 38 39 40 41 42 43 44 45 46 47 48 48 49 50 50 51 52 52 53 54 54 54 55 55 54 54 53 53 54 54 55 55 56 55 54 53 51

ECMWFFLT1_700_spd_003.txt.gz
Wind_Speed
0 1 1 2 1 1 2 3 4 5 5 6 6 6 6 6 6 6 7 8 9 10 10 12 13 14 16 18 18 19 19 19 19 19 20 20 20 20 21 21 20 19 18 18 18 16 13 13 17 19 19 18 18 18 19 19 20 21 21 20 19 19 19
2 2 2 2 2 3 4 6 6 7 7 7 8 8 7 7 6 6 6 7 8 8 9 9 10 11 12 13 13 14 14 14 15 16 17 18 19 20 21 21 20 19 19 20 20 19 16 14 14 16 18 17 18 19 20 20 22 23 23 23 23 22 21
4 3 2 2 3 5 6 7 8 7 7 8 8 9 9 8 8 8 8 8 8 8 8 8 9 10 10 11 10 10 10 11 11 12 12 13 15 16 17 18 18 18 18 19 19 19 19 19 18 19 19 18 18 20 21 22 22 23 24 25 26 26 25
5 4 3 2 3 5 6 7 8 8 8 8 8 8 9 9 9 9 9 9 9 9 9 9 9 9 9 9 9 8 8 8 8 9 9 9 11 12 12 12 13 14 14 15 16 17 18 19 20 21 21 21 21 22 24 25 24 25 25 25 27 28 29
6 4 2 1 2 4 5 7 8 9 9 9 8 7 7 8 8 8 9 10 10 11 11 10 10 10 10 10 9 9 8 8 8 8 8 8 9 10 9 10 10 11 11 11 11 12 14 15 16 18 19 20 21 21 22 23 25 26 27 27 28 29 30
5 4 1 1 2 3 5 7 8 9 9 9 9 8 7 6 6 7 8 9 9 10 11 11 11 12 12 12 12 11 11 10 10 10 10 10 10 10 10 10 11 11 11 10 10 11 12 12 14 15 16 17 18 19 19 20 22 23 25 27 30 31 32
4 3 2 2 2 3 4 6 7 8 8 8 9 9 8 7 6 6 7 7 8 9 10 11 11 12 13 13 14 14 14 13 13 13 13 13 13 13 13 13 13 13 13 13 13 13 13 13 14 15 15 16 17 17 17 18 19 20 21 23 26 28 31
5 3 1 1 2 2 3 4 5 6 7 8 9 9 9 8 7 6 6 6 7 7 8 9 10 11 12 13 14 15 15 15 15 15 15 15 15 15 16 16 16 16 17 17 17 17 17 17 17 18 18 18 18 18 17 17 17 17 19 20 21 24 27
7 6 4 2 0 1 0 1 3 4 6 7 8 9 10 10 9 8 8 7 6 7 7 8 9 10 11 12 13 14 15 15 15 16 16 16 17 17 17 17 18 18 18 18 19 19 19 20 19 20 20 20 20 19 19 18 17 17 18 18 19 20 23
11 9 8 7 5 3 3 3 4 4 5 6 7 9 10 10 10 10 10 10 9 8 8 9 10 10 11 12 12 13 14 15 15 15 16 16 16 16 16 16 17 17 17 18 18 18 19 19 19 20 20 21 21 21 20 19 18 18 19 19 20 21 22
16 12 11 11 10 8 7 7 7 7 7 6 6 8 9 10 11 11 12 12 12 11 11 11 11 11 11 12 12 13 14 15 15 16 16 16 16 16 16 16 16 15 16 16 16 17 17 18 18 19 19 20 20 20 20 19 16 17 20 21 21 24 24
18 16 14 14 15 13 11 11 11 12 11 10 9 8 9 10 10 11 12 12 13 13 13 13 13 13 12 12 12 12 13 14 15 16 16 16 16 16 16 16 15 15 15 15 15 16 16 17 18 19 19 20 21 20 20 20 15 13 18 20 20 23 25
18 18 17 16 17 16 16 15 15 15 15 14 12 11 10 10 10 11 11 12 12 13 14 14 14 15 14 14 13 13 13 14 14 15 16 16 16 16 15 15 15 15 15 16 16 17 17 18 18 19 20 20 22 22 21 21 17 13 16 19 19 21 24
18 19 19 19 18 18 19 18 18 18 19 18 16 15 14 13 12 12 11 12 12 13 13 14 14 15 16 15 15 15 14 14 15 15 15 16 16 16 16 16 16 16 16 17 17 18 18 19 20 20 22 22 23 23 23 23 20 16 16 20 20 21 23
19 20 22 22 21 20 21 21 21 21 22 21 20 19 18 16 15 14 13 13 14 14 14 15 15 16 16 16 17 16 16 16 16 16 16 16 16 16 16 17 18 18 19 19 20 20 20 21 23 23 24 24 24 25 25 24 23 19 17 19 21 21 22
23 24 24 24 24 23 23 23 24 24 24 24 23 22 21 20 19 17 16 15 16 16 17 16 17 17 17 18 18 18 18 18 17 17 18 18 18 18 18 18 18 19 20 21 22 23 23 24 25 26 26 25 25 25 26 26 26 24 21 20 22 22 22
25 25 25 26 26 26 26 26 26 27 28 28 27 26 25 24 22 21 20 19 19 19 20 19 19 20 20 21 21 21 20 20 19 19 19 20 21 21 22 22 21 21 22 23 24 25 26 26 27 28 27 27 27 27 28 28 27 27 26 24 24 24 24
26 25 26 26 27 27 29 29 30 30 31 31 31 30 28 27 26 25 23 23 23 23 23 22 22 22 24 24 24 23 23 22 22 21 21 22 23 24 24 25 25 25 25 26 26 27 28 28 29 29 29 29 30 31 31 31 30 29 29 27 26 27 27
28 27 27 28 28 29 29 31 33 33 33 34 34 34 33 31 30 29 27 26 26 26 26 25 25 25 26 27 27 27 26 25 25 24 23 24 24 25 26 27 27 28 28 28 29 29 30 30 30 30 30 31 32 33 34 35 34 33 32 30 28 28 29
27 28 28 29 31 32 32 32 33 35 36 37 38 38 37 36 34 33 31 30 29 29 28 27 27 28 29 29 29 30 29 28 28 28 27 26 26 26 27 28 29 30 30 30 31 31 31 32 32 32 32 32 33 35 35 36 37 37 36 34 31 30 30
29 29 28 29 30 33 35 35 36 37 39 40 42 42 41 40 39 38 36 34 32 31 30 30 30 31 32 32 32 33 33 32 32 32 31 29 28 28 28 29 30 31 31 32 32 33 33 34 34 33 33 34 35 36 36 37 37 38 38 38 36 35 34
32 32 32 31 30 31 34 38 39 40 41 42 43 44 44 44 43 42 40 37 34 33 33 33 34 34 35 36 37 38 37 36 36 36 35 33 31 30 29 30 30 31 32 33 33 34 34 35 35 35 35 36 36 37 37 38 38 39 39 40 39 39 38
34 34 34 33 31 31 33 37 40 42 46 47 45 44 45 45 44 43 42 40 37 37 38 38 39 39 39 40 41 42 42 40 39 39 37 35 33 32 31 31 31 31 32 33 34 34 35 36 36 37 37 37 38 39 39 40 40 41 41 42 41 41 41
36 35 35 34 34 34 35 37 39 43 48 47 44 45 45 44 41 40 39 39 39 40 41 41 43 44 44 44 44 45 44 43 41 40 40 38 36 35 34 32 32 32 32 33 34 35 35 36 37 37 38 39 40 41 41 42 42 43 43 44 44 43 43
37 36 36 36 37 37 37 38 40 43 46 43 40 43 46 45 42 39 39 40 41 42 43 44 45 46 47 48 47 46 46 45 42 42 42 41 39 38 37 35 34 33 34 34 35 36 36 37 38 39 40 40 41 42 43 43 44 44 44 45 45 45 44
34 35 37 38 39 39 39 39 40 42 44 41 39 40 43 45 43 40 40 41 41 41 43 43 43 45 48 50 49 47 46 46 44 43 43 42 42 41 39 38 36 36 36 36 37 38 39 39 40 40 42 42 43 43 43 44 44 45 45 45 46 46 45
31 33 35 37 39 39 39 40 41 42 42 41 40 37 37 40 41 39 39 41 40 38 37 38 39 43 47 49 47 46 47 47 45 44 44 43 43 42 42 40 39 39 38 39 39 40 41 42 42 43 43 44 44 44 44 44 44 44 45 45 46 47 47
33 33 33 35 37 38 39 39 39 39 38 37 36 35 35 37 39 39 39 40 37 33 33 35 38 41 44 45 45 45 46 45 44 44 44 44 43 44 43 43 42 41 41 41 42 42 43 44 45 45 45 45 45 46 46 46 45 45 45 46 46 47 48
34 35 35 35 35 36 37 38 38 37 35 33 32 32 33 36 37 38 36 32 29 30 32 34 36 38 41 43 44 44 45 43 43 44 44 43 43 43 44 44 44 44 44 44 44 44 45 46 47 47 47 47 47 47 47 47 46 46 47 48 48 48 49
34 36 37 37 37 35 35 35 36 36 35 33 31 30 30 34 37 35 30 26 27 30 32 33 35 38 41 42 42 42 42 43 43 43 43 42 42 42 43 44 44 45 45 45 45 45 46 47 48 49 49 49 49 49 49 48 47 48 49 50 50 51 51
34 35 36 37 38 37 35 34 34 35 36 35 32 30 31 36 36 30 25 25 28 30 31 33 36 38 39 40 40 40 41 43 43 42 42 42 41 42 43 43 44 45 45 46 46 46 47 48 49 50 50 51 51 51 50 49 49 49 50 51 51 52 53
35 35 35 35 36 37 36 35 33 33 35 34 32 30 32 34 31 25 23 26 28 30 32 34 35 35 36 38 39 40 41 42 42 42 42 42 42 42 43 43 43 44 44 45 46 46 47 48 49 50 51 52 53 52 51 51 51 51 52 52 52 53 54
37 36 34 33 33 34 35 34 32 32 32 31 30 29 29 28 26 25 26 27 28 30 33 33 33 34 35 35 37 39 40 41 41 42 43 43 43 43 44 44 44 44 44 44 45 46 47 48 49 50 52 53 54 53 52 52 53 53 53 53 53 54 55
35 36 34 32 31 31 32 32 31 29 29 28 28 27 26 27 28 28 28 29 29 30 31 31 31 32 32 33 35 37 38 40 41 43 44 44 44 45 45 45 45 45 45 45 45 46 47 48 49 51 52 53 54 53 54 54 55 55 54 54 54 55 55
32 33 34 33 31 29 28 28 27 27 27 27 27 27 28 30 30 29 27 27 28 29 29 29 29 29 31 32 34 36 38 40 41 43 45 45 45 46 46 46 46 46 46 46 46 47 47 49 50 52 53 54 54 54 55 55 56 56 55 55 55 55 55
28 28 30 31 29 26 25 27 27 27 27 28 28 29 29 29 26 24 23 24 25 27 27 27 28 29 30 32 34 36 38 40 41 43 44 45 45 46 46 46 47 46 47 47 47 48 49 50 51 52 53 54 55 55 55 56 56 55 55 54 55 55 55
27 26 26 27 25 24 26 29 30 31 31 30 30 30 27 23 20 20 21 22 23 24 25 27 28 30 31 33 35 36 37 38 40 41 43 44 44 44 45 46 46 46 47 47 48 48 49 50 51 52 54 54 55 55 55 55 54 53 53 54 53 53 52

ECMWFFLT1_700_spd_006.txt.gz
Wind_Speed
2 2 3 4 3 3 2 2 3 4 5 5 5 6 6 6 6 6 6 6 5 5 6 6 8 10 12 13 15 17 18 18 19 19 18 17 16 18 18 17 17 15 13 13 13 13 14 16 17 19 23 23 22 23 24 23 22 22 23 22 22 22 23
3 3 4 4 4 3 3 3 3 4 4 5 6 6 6 6 6 6 5 5 5 5 5 5 7 8 9 9 10 11 11 12 13 15 15 16 16 17 17 16 15 14 14 15 17 17 18 18 18 17 19 22 22 23 24 23 21 21 23 23 23 22 23
4 4 4 4 5 4 3 2 2 2 3 3 4 5 6 7 7 7 6 6 6 5 5 5 6 7 8 8 8 8 7 7 8 9 11 12 13 14 14 15 15 14 15 16 17 17 18 19 19 16 14 15 18 21 23 24 24 23 22 22 22 22 24
5 5 5 5 4 2 1 2 3 4 5 4 4 3 4 5 7 7 7 7 7 7 6 6 6 7 7 8 7 7 6 6 5 6 6 7 8 9 9 10 11 12 13 14 15 16 17 18 19 19 16 15 16 19 20 22 24 22 20 21 23 23 24
5 4 3 3 2 0 2 3 5 6 6 6 6 5 3 3 4 6 7 7 7 7 7 7 7 7 7 7 7 6 6 6 6 6 6 6 6 6 6 7 8 8 9 10 11 12 14 15 16 18 20 20 20 22 22 21 21 18 19 24 26 26 26
5 4 2 1 2 2 2 3 5 6 6 7 7 7 6 4 2 2 4 5 6 6 7 6 6 7 7 7 8 8 7 7 7 7 7 8 7 7 7 7 8 8 8 9 9 10 11 11 13 14 16 18 19 19 20 21 22 21 24 27 29 28 27
6 5 3 1 1 2 2 2 3 4 5 6 7 7 7 6 5 3 1 2 3 4 5 5 5 5 6 6 7 8 8 9 9 10 11 11 11 11 11 11 10 11 11 11 11 11 11 11 12 12 13 13 14 14 13 15 18 19 22 24 26 27 27
7 7 6 4 2 2 2 1 1 2 3 4 5 6 7 7 6 5 4 2 2 2 3 3 3 4 4 4 5 6 7 8 9 10 11 12 13 13 14 14 14 14 14 14 14 14 15 15 15 15 15 15 14 14 13 13 14 15 16 18 21 23 25
8 9 9 8 7 6 5 3 2 1 0 1 3 4 5 6 6 6 5 4 3 3 3 3 4 4 5 5 5 5 6 6 7 8 9 10 11 12 13 14 14 15 15 16 16 16 17 17 17 17 17 17 17 17 16 16 16 16 16 16 17 19 21
11 12 12 12 11 10 8 7 5 4 3 3 3 4 5 5 6 6 6 5 4 4 4 4 5 5 6 6 7 7 7 7 7 8 8 9 9 10 11 12 12 13 14 15 15 15 16 16 17 17 17 17 17 17 17 17 17 18 18 19 19 20 21
14 14 15 15 14 13 12 11 9 8 7 5 5 5 6 6 6 6 6 6 5 5 5 5 5 5 5 6 7 8 8 9 9 10 10 10 10 10 11 11 11 12 13 13 14 14 14 15 15 15 15 15 15 15 15 16 15 16 18 20 22 22 23
14 14 16 17 17 16 15 15 13 13 12 10 8 7 8 8 8 8 6 5 5 5 6 6 6 6 6 6 7 8 9 9 10 11 11 11 12 12 12 12 12 13 13 13 13 13 13 14 14 14 14 14 14 14 15 15 15 15 16 18 21 22 23
16 16 18 19 19 18 18 17 17 17 17 15 13 11 10 10 10 10 8 7 6 6 6 6 6 6 6 7 7 8 8 9 10 11 11 12 12 13 13 13 13 13 14 14 14 14 14 14 15 15 15 15 15 14 14 15 16 16 16 18 19 20 22
20 18 18 18 19 20 21 20 20 20 20 20 19 16 15 14 13 12 11 10 9 9 8 8 7 6 6 7 8 9 9 9 10 11 12 12 13 14 15 15 15 15 15 15 16 16 16 16 16 17 16 17 16 16 15 15 16 17 17 18 19 20 21
25 23 21 20 20 21 21 22 22 22 23 23 23 23 21 19 18 17 15 13 12 12 11 11 11 10 9 9 11 12 12 12 11 12 12 13 14 15 16 17 17 17 17 18 18 18 18 18 19 19 19 19 18 18 18 17 18 18 18 18 19 19 20
29 28 27 26 25 23 22 22 23 24 25 26 26 27 26 24 23 22 20 18 16 15 15 15 14 14 13 13 14 15 15 15 15 15 14 15 15 16 17 17 18 18 19 20 20 21 21 21 22 22 22 22 22 21 21 20 21 21 21 21 20 21 21
27 28 29 28 28 27 25 24 23 24 27 28 29 30 30 29 28 27 26 23 21 19 19 18 18 18 17 17 18 18 18 18 18 18 18 18 19 19 19 19 19 19 20 21 22 23 24 24 24 25 25 26 26 25 24 24 24 25 25 24 22 22 22
23 24 26 28 28 28 27 27 26 26 27 29 30 32 33 33 32 32 30 29 27 25 23 22 22 22 22 22 22 22 22 21 21 21 21 21 22 22 22 22 22 21 22 23 24 25 25 26 26 27 28 28 29 29 28 27 27 27 27 27 25 24 24
22 23 25 27 26 26 27 28 29 29 30 30 31 33 34 36 36 36 34 33 32 30 28 27 26 25 25 26 27 27 27 26 26 26 26 26 26 26 26 26 25 25 24 24 25 26 27 27 28 29 29 30 31 31 31 30 30 29 29 29 29 28 26
24 25 26 27 24 22 24 26 29 32 33 33 33 34 35 37 39 39 38 36 35 33 32 31 30 29 29 29 30 31 31 31 31 32 32 32 33 33 32 31 30 29 28 27 27 28 29 29 30 30 31 31 32 32 33 32 32 32 31 31 31 31 31
25 27 27 26 25 23 24 26 29 33 36 37 37 36 38 39 39 40 40 39 38 37 36 36 35 34 33 33 34 34 35 35 36 37 37 37 37 37 36 35 34 33 32 31 29 29 30 31 31 32 32 33 33 33 34 34 34 34 34 33 33 33 33
28 30 29 29 28 28 28 28 30 32 35 38 40 41 41 41 40 41 42 42 41 39 39 39 39 38 37 37 37 37 37 38 39 39 40 40 39 38 38 37 36 36 35 34 33 31 32 32 33 33 34 34 35 35 35 35 35 36 35 35 35 35 35
30 32 32 32 32 32 32 32 32 33 34 37 41 43 44 44 44 43 43 43 43 42 41 41 39 37 37 38 38 38 38 39 39 40 41 41 40 40 41 40 38 37 37 36 36 35 34 34 34 35 35 36 36 37 37 37 37 37 38 38 37 37 37
31 33 34 34 34 35 35 35 35 35 36 37 39 42 45 47 47 45 43 42 44 44 44 43 39 36 36 36 37 38 38 38 39 41 41 41 41 42 43 42 40 39 38 38 37 37 37 36 36 36 36 37 38 38 39 39 39 39 40 40 40 40 40
32 33 34 34 35 36 36 37 37 37 38 38 38 40 43 47 48 48 45 44 47 47 45 43 39 35 34 36 37 38 38 37 39 40 39 40 43 45 43 42 41 41 41 40 39 39 39 39 39 38 38 38 38 39 40 41 41 42 42 43 43 43 43
32 33 33 33 34 36 37 37 37 38 39 39 39 39 40 42 44 45 43 44 46 45 42 40 36 34 35 39 40 38 37 37 38 38 38 40 44 44 42 41 41 41 42 42 41 40 40 40 41 42 41 40 40 40 41 41 42 43 44 45 45 45 44
30 31 32 33 33 35 36 37 37 38 39 39 39 39 39 39 39 39 38 37 38 39 39 38 37 37 40 42 41 38 36 35 36 37 39 41 42 42 41 40 40 41 42 42 42 41 41 40 41 43 43 43 43 43 43 43 43 44 45 46 47 47 46
28 28 29 30 31 33 35 36 37 38 38 37 38 39 39 38 37 36 34 33 33 34 35 38 39 41 42 41 38 35 34 35 36 38 40 40 40 40 40 39 39 40 41 42 42 42 41 41 42 44 44 45 45 45 45 45 46 46 46 47 47 48 47
29 29 29 29 30 31 32 34 35 37 38 37 37 37 38 37 36 34 32 30 31 32 33 37 40 41 40 38 34 33 35 36 37 38 40 40 39 39 39 39 39 40 41 42 43 43 42 42 44 45 46 46 46 47 47 47 47 47 47 47 49 49 49
31 32 31 32 32 31 31 33 34 36 38 38 37 36 35 34 34 32 29 28 30 32 35 38 39 39 38 36 34 35 37 37 38 38 38 38 38 38 39 39 40 41 42 43 43 44 44 44 45 46 47 47 48 48 48 48 48 48 48 48 49 50 49
32 33 33 34 34 34 33 34 35 36 37 37 37 36 34 33 33 31 29 29 31 34 38 40 40 39 37 36 36 37 37 37 37 36 36 37 38 39 39 40 41 41 42 43 44 44 44 44 46 48 48 48 48 48 48 48 49 49 50 50 50 50 49
33 34 35 35 36 36 35 36 36 37 37 36 36 35 34 32 32 31 31 32 34 36 39 40 39 37 36 36 36 36 35 35 35 35 36 38 39 40 41 42 42 43 44 44 44 44 44 45 47 49 50 50 50 49 49 49 50 51 51 51 51 51 50
34 35 36 36 36 37 37 37 38 38 37 34 33 33 33 31 31 32 33 34 37 39 38 37 36 35 34 34 33 32 32 33 35 36 37 39 41 42 42 42 43 45 46 46 46 45 46 47 48 49 50 51 51 50 50 51 51 52 52 52 52 51 51
36 36 36 36 36 36 37 37 37 37 36 34 32 32 32 31 31 31 34 37 39 38 37 35 34 33 31 31 31 32 33 34 35 37 39 41 42 43 44 44 44 46 47 47 47 47 48 48 48 48 49 50 50 50 51 52 52 53 53 52 52 51 51
36 36 35 34 34 34 34 35 35 35 35 33 31 29 30 30 30 32 35 39 39 36 35 35 33 31 31 32 33 34 34 35 37 39 41 42 43 44 45 46 46 46 47 47 47 48 48 48 48 49 49 49 50 50 51 52 52 53 53 52 52 52 51
35 34 33 33 32 32 33 34 33 33 32 30 28 27 29 31 33 35 38 39 37 35 34 34 33 33 33 33 33 33 34 36 38 40 42 43 44 45 46 46 46 47 47 47 47 48 48 48 49 49 50 50 51 51 51 52 52 52 52 52 52 52 52
34 33 31 32 32 32 32 31 30 30 29 27 27 29 31 35 37 39 39 37 34 32 32 33 33 32 31 31 31 33 35 37 39 40 42 43 43 44 45 45 46 46 46 47 48 48 48 49 49 50 50 51 52 52 52 52 52 52 52 52 52 52 51

ECMWFFLT1_700_spd_009.txt.gz
Wind_Speed
3 4 4 5 5 5 5 5 5 5 5 5 5 4 4 3 3 2 2 2 3 3 4 4 5 5 6 7 8 9 10 10 11 11 10 10 10 12 13 13 13 13 13 14 16 15 13 11 12 13 16 18 20 22 23 24 25 25 25 26 24 20 20
4 4 5 6 6 7 7 7 7 7 6 6 6 5 5 5 4 3 3 3 3 3 3 4 4 4 4 5 6 7 7 8 9 9 8 9 9 10 10 10 11 10 11 12 13 15 15 15 14 14 15 14 15 20 24 25 26 26 26 25 23 21 19
4 4 6 6 7 7 6 6 6 5 4 4 3 4 5 5 5 5 5 4 4 4 4 4 5 4 4 4 4 4 5 6 7 8 9 9 10 11 11 12 11 11 11 11 11 12 14 15 16 17 17 16 15 15 20 25 27 28 27 25 23 21 20
4 4 6 6 6 5 4 3 2 1 0 1 0 1 2 3 5 5 6 6 5 5 5 5 5 5 4 4 4 4 4 4 5 6 7 8 8 9 10 11 11 11 12 13 13 13 14 16 18 18 19 19 18 14 15 19 26 29 28 28 28 25 24
4 4 4 4 3 3 2 2 2 2 3 4 3 3 1 0 2 4 5 6 6 6 6 6 6 6 6 5 5 5 5 5 5 5 6 6 7 7 8 8 9 9 10 11 12 13 14 15 16 17 18 20 21 19 15 14 17 23 24 26 28 27 28
3 3 3 2 2 2 2 3 3 4 5 6 6 5 4 3 1 1 3 4 5 5 5 5 6 7 7 7 7 7 7 7 7 7 7 7 7 7 8 8 8 9 9 10 10 11 11 12 12 13 14 16 18 19 19 17 16 17 17 19 21 21 23
4 2 2 2 1 1 1 2 2 4 5 6 7 7 6 5 4 2 0 2 3 3 4 4 5 5 6 7 7 7 8 9 9 9 10 10 10 10 10 10 11 11 11 11 11 11 11 12 12 12 11 12 13 14 16 17 17 16 17 18 19 19 18
6 3 2 2 3 3 3 2 1 1 3 5 6 7 7 7 6 5 3 2 1 1 1 1 2 3 3 4 5 6 6 7 8 9 9 10 11 12 12 13 13 14 14 14 14 14 14 14 14 14 14 13 13 12 13 13 13 14 15 17 19 19 17
8 5 5 5 5 5 6 5 4 2 1 1 3 4 6 7 7 6 5 4 3 2 2 1 1 0 1 1 2 3 4 5 6 6 7 8 9 10 11 12 13 13 14 15 16 16 16 17 16 16 17 16 16 15 15 15 15 15 15 16 17 17 16
11 9 9 9 8 9 9 8 7 6 4 3 2 2 3 4 5 5 5 5 4 3 2 1 1 1 1 1 2 3 4 5 6 6 6 7 7 7 8 9 10 11 12 13 14 15 15 16 16 16 16 16 16 16 16 16 16 16 17 18 18 19 20
14 13 13 13 12 12 11 11 10 9 8 6 5 4 3 2 2 2 3 3 3 3 2 2 2 2 2 2 3 4 4 6 6 7 8 8 8 8 8 8 9 9 10 10 12 12 13 14 14 14 14 14 14 14 14 14 13 14 16 17 18 20 22
19 17 17 16 15 14 14 13 13 13 12 10 8 7 7 6 4 3 2 2 3 3 2 2 3 3 3 4 4 5 5 6 7 8 9 10 10 10 10 11 11 11 11 10 10 11 11 12 12 13 12 13 13 13 13 13 12 12 13 15 16 18 20
23 20 19 18 17 17 16 16 16 16 15 14 12 11 10 10 9 7 5 4 4 5 5 4 4 4 4 5 5 6 6 6 7 8 9 11 12 13 13 13 13 13 14 13 13 12 12 12 13 13 13 13 14 14 15 15 14 13 13 14 14 15 17
26 24 22 20 19 19 18 17 17 18 18 17 16 14 14 13 12 12 11 9 8 7 8 8 7 7 7 8 8 8 8 8 8 8 9 10 11 13 14 14 14 15 15 16 16 16 15 15 15 15 15 15 16 17 17 17 17 16 15 15 15 15 16
29 27 25 23 22 21 21 20 18 18 20 20 19 18 18 18 17 16 16 15 13 12 11 11 11 11 11 12 12 13 13 13 13 12 12 12 12 13 14 15 15 16 17 18 19 19 19 18 18 18 18 18 18 19 20 20 21 20 19 18 17 16 17
31 31 30 29 28 26 24 23 22 20 20 21 22 22 22 22 21 20 20 19 18 17 16 15 16 16 15 15 16 16 17 17 18 18 17 17 16 16 16 16 16 17 18 19 20 21 22 22 22 22 21 21 21 22 22 23 23 23 22 21 20 20 20
34 34 34 33 32 30 27 26 26 24 22 21 22 23 23 24 25 25 24 23 22 21 21 20 20 20 20 20 20 20 20 20 21 22 22 22 22 22 22 21 21 21 21 21 22 23 24 24 25 25 25 25 25 25 25 25 25 25 25 24 23 22 23
35 37 38 37 35 32 30 30 30 29 26 25 26 27 26 25 27 28 28 27 26 24 23 23 23 23 24 24 24 25 24 23 24 25 25 26 26 27 27 27 27 27 26 25 24 24 24 25 26 27 27 27 28 28 28 28 28 28 28 27 26 25 25
32 33 36 35 32 29 29 30 30 30 30 29 30 32 32 29 29 30 29 29 29 27 26 25 26 26 27 26 27 28 28 28 28 28 28 28 28 28 29 30 31 31 30 29 28 26 26 26 26 27 28 29 29 30 30 31 31 31 31 31 30 29 28
27 24 24 23 22 21 22 24 25 28 32 32 31 33 36 35 32 30 29 30 32 31 30 29 29 30 30 29 29 30 31 31 31 31 30 30 30 29 30 32 32 32 32 31 31 30 28 28 27 27 28 29 30 30 31 32 32 33 34 33 33 33 31
23 20 18 17 18 18 18 18 21 25 30 32 31 32 36 39 36 31 30 32 34 35 34 33 33 34 33 32 32 32 33 33 33 33 32 31 31 31 31 32 32 32 32 33 33 33 33 32 30 29 29 30 31 32 32 33 34 34 35 35 35 35 35
26 26 25 25 27 26 23 21 23 26 28 30 31 31 34 38 38 33 31 35 37 38 38 39 38 37 35 34 35 35 36 36 35 35 34 33 32 31 32 33 34 35 35 35 36 36 36 36 35 32 30 30 31 32 33 34 35 36 36 37 37 37 37
25 25 26 26 28 29 28 26 26 28 30 30 30 30 31 34 36 33 33 38 40 40 41 43 42 40 37 36 38 38 37 37 37 36 36 35 34 33 33 35 37 39 38 37 36 37 38 39 38 35 33 32 33 34 34 35 35 36 38 38 38 38 38
23 23 24 24 25 26 27 28 29 31 33 34 32 31 31 32 32 32 35 39 40 40 43 44 44 43 41 40 41 40 39 39 39 38 38 37 36 35 37 38 40 41 39 37 36 38 39 38 37 36 36 35 35 35 36 36 36 37 38 39 40 40 40
25 26 26 26 28 29 30 31 33 34 36 37 36 35 33 32 32 32 34 35 36 39 43 45 45 46 45 43 43 43 42 42 42 40 38 36 36 38 40 41 41 40 39 37 38 40 40 39 38 37 37 37 36 36 36 37 38 38 39 40 41 41 41
27 28 28 29 30 31 32 33 34 35 35 36 38 38 37 36 35 35 36 34 34 39 41 39 39 41 41 41 42 42 42 42 40 38 36 36 37 39 40 40 40 39 39 40 40 41 41 41 40 39 39 38 38 37 36 36 37 38 39 41 42 41 41
28 28 29 29 31 31 32 33 33 33 34 35 37 37 37 37 37 37 38 36 37 41 40 34 31 33 35 37 38 38 39 40 38 36 37 39 40 39 38 38 38 39 41 43 43 43 42 41 40 40 40 40 39 39 38 38 37 37 38 39 41 41 42
27 27 27 28 29 29 30 31 31 31 31 33 34 35 35 35 35 35 35 35 37 41 39 32 31 33 34 35 36 36 38 38 37 37 39 40 39 38 37 37 38 40 42 43 44 43 42 39 38 38 38 38 39 40 40 40 40 39 39 39 40 41 42
27 27 27 27 27 27 28 29 29 29 29 30 31 32 32 33 33 33 33 33 36 39 35 30 31 34 35 36 37 37 37 37 37 38 39 38 37 37 37 38 39 42 43 43 43 42 40 37 37 37 38 39 40 41 42 42 42 42 41 41 41 43 43
27 27 27 27 27 28 28 29 30 30 30 30 31 31 32 31 30 30 32 33 36 37 33 30 32 35 36 38 38 37 36 36 36 38 38 38 38 38 38 40 41 42 42 41 41 41 39 38 38 40 41 42 43 43 44 44 44 44 44 44 44 44 44
27 26 25 25 26 27 28 29 30 30 31 32 32 31 32 31 29 28 30 33 36 35 31 29 33 36 36 37 37 35 34 35 36 38 40 41 40 40 40 41 41 40 39 39 39 40 40 40 40 42 43 45 45 46 46 46 46 46 47 47 47 46 46
28 27 26 26 27 27 28 29 29 30 31 32 32 32 32 32 29 28 31 35 35 33 30 30 34 36 36 36 35 34 34 35 37 39 41 41 41 40 41 41 40 39 38 39 40 41 42 43 43 44 45 46 47 47 48 48 47 48 49 49 49 49 48
32 31 31 31 31 31 31 30 31 31 32 32 32 32 31 30 29 30 33 34 33 31 30 32 35 36 36 35 35 35 35 36 37 38 39 38 38 40 40 39 40 40 40 41 43 44 45 46 46 47 47 47 48 48 49 49 49 49 49 50 50 50 49
36 36 35 35 35 34 33 32 32 32 32 32 31 30 28 28 30 33 32 31 31 32 33 34 36 36 35 35 35 36 36 36 36 37 37 37 39 40 39 38 40 41 43 44 46 47 48 48 49 50 50 50 49 49 50 50 50 50 50 50 50 50 49
38 38 37 37 36 35 35 34 34 33 32 32 30 28 27 29 32 34 32 31 33 35 35 35 35 36 35 36 38 37 36 36 36 36 37 39 40 40 39 39 41 44 45 47 48 49 50 50 50 51 51 51 51 50 50 50 51 51 51 50 50 49 49
39 38 37 37 36 36 36 36 35 34 32 31 30 29 29 31 33 33 32 32 34 35 35 34 35 36 37 38 40 38 36 35 35 36 38 39 39 38 38 40 43 46 47 48 49 49 50 50 50 50 50 50 51 51 51 50 50 51 50 50 49 49 48
40 39 39 39 39 38 37 38 37 35 33 31 30 29 29 32 34 34 33 33 34 34 35 36 38 40 40 40 39 38 36 36 36 37 38 38 37 38 40 43 45 46 47 47 47 48 48 49 49 50 50 51 51 51 52 52 51 51 51 50 49 49 48

ECMWFFLT1_700_spd_015.txt.gz
Wind_Speed
15 14 12 11 8 4 3 3 3 3 3 2 2 2 3 4 4 4 4 3 3 4 4 3 4 4 4 5 6 8 8 9 10 11 12 13 14 14 14 15 14 14 14 14 14 14 14 14 12 12 9 5 4 7 12 15 19 22 21 19 18 20 21
14 13 12 12 9 5 2 2 2 2 2 2 2 2 3 4 3 2 2 3 2 2 1 1 1 1 2 2 3 4 5 5 6 7 8 9 10 11 12 12 12 12 12 12 13 13 13 13 12 12 11 9 7 8 10 11 11 15 18 18 18 19 20
13 12 11 11 9 4 1 2 3 3 2 2 1 1 2 3 3 3 3 3 3 1 1 1 1 1 0 0 1 2 2 2 3 3 4 5 6 8 8 9 10 10 10 10 10 10 11 11 11 12 13 13 12 11 10 9 7 8 10 13 16 19 20
13 12 11 9 7 3 2 5 5 6 5 5 4 3 3 3 3 3 3 4 3 3 2 2 1 1 1 1 1 1 1 1 2 2 2 2 4 5 5 6 6 7 8 9 9 9 9 10 10 11 12 13 12 12 11 11 10 9 8 8 10 14 18
12 11 9 7 4 2 3 6 6 7 7 6 6 5 5 4 4 4 4 4 4 3 3 2 2 2 1 1 1 1 1 1 2 2 2 2 3 3 3 3 4 4 6 7 7 6 7 9 10 10 11 11 11 12 13 12 12 12 12 12 12 13 14
11 9 7 5 3 1 3 6 7 8 8 8 8 8 8 7 7 6 5 5 5 5 4 4 3 3 3 3 2 2 2 1 1 1 1 2 3 3 3 3 4 4 4 5 5 5 6 6 7 8 8 8 8 9 9 10 11 12 14 16 18 18 17
11 8 6 4 2 1 3 6 8 9 10 11 11 11 11 10 10 9 9 8 8 7 7 7 7 7 6 6 5 5 4 4 3 3 2 1 0 1 2 3 4 5 5 5 6 6 7 7 7 8 8 8 7 7 8 8 8 9 11 15 17 19 20
11 9 5 3 1 2 3 6 8 9 10 11 11 12 12 12 12 11 11 11 11 11 11 10 10 10 10 9 8 8 7 7 6 6 5 5 4 3 2 1 2 3 4 4 5 6 7 7 8 8 9 10 9 9 9 9 9 9 11 13 14 16 18
12 10 7 4 3 4 4 6 7 7 8 9 9 11 11 12 12 12 12 12 12 12 12 12 12 12 11 11 11 11 10 10 10 9 9 8 7 6 6 5 4 3 3 3 4 4 5 5 5 6 6 7 8 8 8 9 10 10 12 14 14 15 16
12 12 9 7 6 6 6 6 6 5 6 6 6 7 8 9 10 10 10 10 11 11 11 11 11 11 11 11 12 12 12 12 12 12 11 10 10 9 8 7 7 6 5 5 4 5 5 5 5 5 5 5 5 5 5 6 8 8 11 14 14 14 15
13 13 12 10 9 8 8 8 7 5 3 3 3 3 4 5 6 7 8 8 8 8 9 9 9 9 10 10 10 10 11 11 11 11 11 11 11 10 10 10 9 9 8 7 7 6 6 6 6 6 6 6 5 4 4 4 6 6 8 10 12 12 13
15 15 14 13 11 10 10 10 9 7 5 3 3 2 1 1 1 2 3 4 4 5 5 6 6 6 7 7 7 8 8 8 8 9 10 10 10 10 11 11 11 11 10 10 10 10 10 10 10 9 9 8 7 6 5 5 6 6 7 8 10 11 12
17 18 16 15 14 12 11 11 11 10 8 7 6 6 5 4 3 2 1 1 0 1 1 2 3 4 4 5 5 5 5 6 7 7 8 8 9 10 10 11 11 11 11 11 11 11 12 13 13 13 13 12 11 10 9 7 7 8 9 9 10 11 12
22 21 19 16 15 15 14 13 13 13 11 10 9 8 8 8 7 7 6 6 5 5 4 3 3 3 3 4 5 6 6 6 6 7 7 8 8 9 10 11 12 13 13 13 13 13 13 14 15 15 15 15 14 13 12 11 10 10 12 12 12 13 14
23 20 18 17 17 18 18 17 16 16 15 13 11 10 10 10 10 11 10 10 10 9 8 7 7 6 6 7 7 9 10 10 9 9 10 10 10 11 11 11 12 14 15 15 15 15 16 16 16 16 17 17 18 17 16 15 14 13 13 14 15 15 16
23 18 17 19 19 20 20 20 20 18 17 15 13 13 12 12 13 13 14 14 14 13 12 11 10 10 10 10 11 11 12 14 14 13 13 13 12 13 14 15 15 16 17 17 17 18 18 17 16 15 16 17 18 19 20 20 19 18 17 17 17 18 18
25 22 21 20 18 19 21 21 21 19 18 18 18 17 17 18 18 18 18 18 18 16 14 13 12 11 12 13 14 15 16 17 18 16 16 15 14 14 16 17 18 18 20 20 21 20 20 19 17 16 16 17 18 19 21 22 22 22 21 19 19 20 20
26 26 25 21 16 18 22 23 23 22 20 20 20 19 20 22 24 26 25 24 23 21 18 16 15 15 15 15 15 17 17 19 20 18 17 17 17 17 17 18 18 19 20 21 22 23 23 23 22 21 21 21 21 22 23 23 24 24 24 23 22 22 22
25 26 25 21 18 21 24 26 26 25 22 20 20 20 23 26 30 33 32 30 28 26 23 22 21 19 18 17 17 17 16 17 19 19 18 18 19 20 20 20 20 20 21 22 23 24 26 27 27 26 25 24 24 24 24 25 24 24 24 24 24 24 24
21 21 21 21 22 24 25 27 28 28 27 24 22 23 27 30 32 32 31 30 29 29 28 27 25 22 19 18 18 18 16 16 17 17 18 19 20 21 22 22 23 23 23 24 24 26 27 29 31 30 29 27 26 26 26 26 25 25 24 24 25 25 25
16 18 20 22 23 23 23 25 28 29 28 26 23 25 28 29 28 25 24 23 22 24 27 26 23 20 19 19 19 20 20 19 20 20 21 21 22 23 24 25 26 26 26 26 26 27 28 30 31 31 31 30 29 29 29 28 27 26 25 25 26 27 26
10 13 16 19 21 22 23 25 26 27 27 26 25 26 27 26 25 23 22 21 19 18 21 21 20 18 18 19 21 22 22 22 23 24 24 24 25 26 27 27 28 28 28 28 28 28 30 31 31 31 31 31 31 32 32 31 30 29 28 28 28 28 28
7 9 12 14 16 18 20 21 21 22 23 24 24 24 24 23 22 21 20 20 20 20 20 21 21 20 19 20 22 23 23 24 24 25 26 26 26 27 28 30 30 30 29 28 29 30 30 31 31 31 32 32 33 33 33 32 33 33 32 32 31 31 30
8 9 11 12 13 15 16 17 18 19 20 21 22 22 21 20 19 17 16 17 19 20 22 23 24 23 22 22 23 25 26 27 27 27 28 27 26 28 31 32 32 31 30 28 29 30 31 31 31 32 32 33 33 33 33 33 34 34 34 34 34 33 33
12 13 13 14 14 15 16 16 17 18 20 21 21 22 22 21 20 19 19 19 20 22 23 25 25 26 25 24 25 27 29 30 30 30 29 28 28 30 33 34 33 32 31 29 29 31 31 31 31 31 32 33 34 33 33 33 34 34 35 35 35 34 33
16 16 16 16 17 17 18 19 19 20 21 22 22 23 23 24 23 23 24 24 25 26 27 27 26 26 25 25 26 28 29 30 31 32 30 30 31 32 35 36 34 33 33 31 31 32 32 31 31 31 32 33 33 33 32 32 32 32 33 34 35 34 33
18 18 17 17 18 18 19 19 20 21 22 23 23 23 24 24 25 26 28 28 28 28 28 27 26 26 25 26 27 28 28 28 29 31 31 32 32 33 36 37 35 35 35 33 31 31 31 31 31 32 33 33 32 32 32 31 31 32 33 34 34 34 34
19 18 17 17 17 18 18 19 20 21 22 23 24 24 24 24 24 25 27 27 27 26 25 24 25 25 25 26 26 25 25 25 26 29 31 32 32 33 36 37 36 37 36 34 32 31 31 31 32 33 33 32 32 32 33 32 32 33 33 34 35 36 36
19 18 16 16 16 17 17 18 19 20 21 22 23 24 24 24 24 25 26 27 26 25 24 24 24 25 25 26 25 24 24 24 26 28 30 31 32 34 37 37 36 36 35 33 31 30 30 32 33 33 32 32 33 34 34 35 36 36 36 36 37 37 38
20 18 17 16 16 16 17 18 19 20 21 23 23 23 24 25 25 26 27 28 28 26 24 24 25 26 27 27 26 25 24 25 26 28 30 31 33 36 37 38 37 36 34 31 29 29 31 32 33 32 32 33 34 34 36 37 38 38 38 38 39 40 41
21 20 18 17 17 17 17 18 19 21 23 23 23 23 24 24 25 26 26 27 27 25 23 22 23 24 26 26 26 25 25 25 27 29 30 32 33 35 36 37 38 36 34 31 29 29 32 33 32 32 33 34 35 36 38 38 38 38 38 39 40 41 42
23 22 20 19 18 18 18 18 20 22 23 24 25 24 25 25 26 26 26 26 25 25 23 22 22 22 23 24 25 25 24 26 27 29 31 33 35 36 37 38 37 35 33 31 30 32 34 34 33 34 35 37 38 39 39 38 38 38 39 40 41 42 42
25 25 23 22 21 20 19 20 21 23 24 25 26 26 27 29 29 29 28 28 28 27 26 24 24 24 24 25 25 25 24 26 28 29 31 34 36 37 37 37 36 34 33 33 33 34 35 36 36 37 38 39 40 40 39 39 39 40 41 42 42 42 42
27 27 27 26 25 23 22 22 22 24 25 26 26 27 29 31 32 31 30 29 29 28 27 26 25 26 26 27 27 26 25 26 29 30 32 34 35 36 36 36 36 35 34 34 35 37 38 38 39 40 40 41 41 41 40 41 42 43 43 43 43 43 43
28 29 29 29 28 27 26 25 24 25 26 27 28 30 32 33 34 33 31 30 29 28 27 27 27 28 28 29 29 28 26 27 30 32 32 33 35 36 36 36 35 33 32 34 37 39 40 41 41 41 41 42 42 42 42 44 44 44 44 43 43 43 43
30 31 31 31 31 30 29 28 27 27 27 27 28 30 32 34 34 33 32 31 30 29 29 29 29 29 30 30 30 30 28 28 29 31 32 33 34 35 34 33 31 31 33 35 38 40 42 43 43 43 42 42 42 42 43 44 44 44 44 44 44 44 44
32 32 32 32 32 31 29 29 29 29 29 29 29 30 31 32 33 33 32 32 32 32 31 31 30 30 31 31 30 30 29 29 30 31 32 33 31 30 29 29 30 31 33 35 37 40 42 42 43 42 41 41 42 42 43 44 44 44 45 45 46 46 47

ECMWFFLT1_700_spd_021.txt.gz
Wind_Speed
8 8 10 11 12 11 10 8 6 5 4 5 6 7 8 8 8 9 10 10 10 11 11 12 13 14 14 15 16 17 17 18 18 17 16 15 15 16 15 14 14 14 14 14 14 14 15 15 15 15 15 16 16 16 15 15 13 11 10 10 13 16 18
9 7 8 9 10 11 10 9 7 6 5 5 5 5 6 7 7 7 7 8 8 9 10 10 10 11 11 12 12 13 15 16 17 17 16 15 14 14 14 14 14 14 14 13 14 15 16 16 15 15 16 16 16 16 16 15 13 12 11 12 13 14 15
9 7 6 7 8 8 9 8 7 6 5 5 4 5 6 7 7 6 6 7 8 9 9 9 9 8 8 8 8 8 9 11 13 14 14 14 13 13 13 13 13 14 14 13 14 14 14 14 15 15 15 15 15 15 15 14 14 13 13 13 13 13 13
10 8 6 6 6 6 7 6 5 5 4 4 4 4 5 7 7 6 6 7 8 9 9 9 8 8 8 7 6 6 7 8 9 10 11 12 12 12 11 11 12 12 12 12 12 12 12 12 13 12 12 12 12 13 12 11 12 13 13 13 13 13 13
12 10 7 5 6 5 5 4 3 3 2 2 3 4 4 5 6 6 7 8 9 9 9 9 9 9 8 8 7 7 7 7 7 8 8 9 9 8 8 8 9 9 8 8 8 9 9 9 9 9 9 9 10 11 11 9 10 10 10 11 12 13 12
13 12 9 6 6 5 4 3 2 1 1 1 1 2 4 5 6 7 7 8 8 9 9 9 9 8 8 8 7 7 7 7 7 7 7 6 6 6 5 5 5 5 4 4 4 5 5 6 6 5 6 7 7 8 8 8 8 8 8 9 10 10 10
16 13 11 8 6 5 3 2 1 2 3 4 3 3 4 5 6 6 7 7 7 7 7 7 7 7 6 6 6 6 6 6 6 6 5 5 5 5 4 4 4 4 4 4 4 4 5 5 6 6 6 7 8 9 9 10 10 10 9 10 10 10 9
18 14 11 9 8 5 2 1 1 4 5 6 5 5 5 5 5 5 5 6 6 6 6 6 6 6 6 6 5 5 5 5 4 4 4 3 3 3 2 2 2 2 1 1 1 2 2 3 4 4 5 6 7 8 9 10 10 10 10 10 11 11 11
19 14 11 10 10 7 5 4 4 5 7 8 8 7 7 7 7 7 7 7 8 8 9 9 10 10 10 10 10 10 10 9 9 8 8 8 7 7 7 6 6 6 5 5 4 3 3 3 3 3 3 3 3 5 6 7 8 8 8 8 9 10 10
19 15 12 12 12 10 8 7 6 6 7 9 10 10 10 9 9 10 10 10 11 11 11 11 12 12 11 11 11 11 11 11 11 11 10 10 10 9 9 9 9 8 8 7 6 5 5 5 5 4 4 4 4 4 5 6 6 7 7 8 8 9 10
21 18 15 16 16 13 12 9 8 8 7 8 9 10 10 10 10 11 11 11 11 11 11 10 10 10 9 9 9 9 9 9 9 9 9 9 9 8 8 8 7 7 7 6 5 5 4 4 4 4 4 4 4 5 6 7 7 8 8 9 9 10 11
22 21 19 19 18 16 14 11 10 9 8 7 7 8 9 9 9 9 9 9 8 7 7 6 6 6 5 5 6 6 6 6 6 6 6 5 5 5 4 5 4 4 4 3 3 3 3 4 4 4 4 3 3 3 4 6 8 8 9 10 11 11 12
24 23 21 21 20 18 17 14 11 10 9 8 7 7 7 7 8 7 7 6 5 4 3 2 2 1 1 1 0 1 1 2 2 2 2 1 1 1 1 2 2 3 3 3 3 4 4 5 5 5 5 4 3 3 3 4 7 9 10 10 12 13 13
26 26 24 23 24 22 20 16 13 12 11 10 8 7 7 6 6 5 4 4 3 1 1 1 2 3 4 4 5 6 5 5 4 4 4 4 4 4 5 5 5 6 6 6 6 7 7 7 7 7 7 6 6 6 6 6 7 10 11 12 12 14 15
29 27 25 25 26 23 19 17 17 16 13 11 9 8 7 7 6 6 5 4 3 3 2 3 4 5 6 7 8 9 10 10 10 10 10 9 9 9 9 8 8 9 9 9 9 9 10 10 10 10 10 9 9 9 10 11 11 12 13 14 14 14 15
29 29 27 25 26 25 20 19 20 19 16 15 13 11 10 8 7 7 6 6 5 4 3 4 6 7 8 9 10 11 12 12 13 13 13 13 13 13 12 11 11 11 11 11 11 12 13 13 13 14 14 14 13 14 14 14 14 14 15 16 16 15 15
26 29 28 26 27 27 24 22 21 20 20 18 17 16 14 12 11 10 10 9 8 7 6 7 8 10 11 12 12 13 13 13 13 14 14 15 15 15 14 13 13 14 13 13 13 15 15 16 16 17 17 18 18 18 19 19 19 18 17 17 17 17 16
23 27 28 28 28 28 25 25 23 22 21 21 20 19 17 15 15 14 14 13 12 9 9 11 12 13 14 14 15 15 15 16 15 15 16 16 16 16 16 15 15 16 16 16 16 17 18 19 19 19 19 20 21 22 23 24 24 23 22 20 19 19 19
23 26 29 29 29 28 26 27 27 25 24 24 24 22 19 18 18 16 16 16 14 12 11 12 14 16 17 18 18 19 19 19 19 19 18 18 18 18 17 17 16 17 18 19 20 21 22 22 22 22 22 22 23 24 25 26 27 27 26 24 23 22 22
22 26 29 31 30 28 28 28 29 27 26 26 28 27 25 23 22 21 20 19 18 17 16 15 15 15 18 20 21 22 24 23 23 22 20 19 19 19 19 18 18 19 21 22 24 25 26 26 26 26 26 25 26 27 28 28 29 29 29 28 27 27 27
22 25 28 28 28 26 27 29 28 26 26 26 26 27 28 28 28 27 26 26 25 23 22 21 18 15 15 17 19 21 24 26 25 23 22 21 21 21 21 21 21 21 23 25 27 29 29 30 30 30 29 28 28 29 31 32 32 32 32 31 30 30 30
21 23 24 25 25 25 27 29 27 25 28 27 24 25 28 27 26 25 26 28 28 24 19 18 19 18 17 18 18 18 20 25 26 24 22 22 21 21 22 23 23 23 24 26 28 30 31 32 33 33 33 32 31 31 32 34 34 35 34 34 33 33 32
17 18 19 22 23 24 26 28 25 25 29 28 24 25 25 24 22 23 24 25 24 21 16 15 18 20 20 20 20 19 18 21 25 25 24 23 22 23 23 24 25 25 25 26 28 29 30 32 34 35 35 34 33 33 34 34 35 36 36 36 35 35 35
14 15 17 19 20 21 23 24 23 24 27 28 26 24 21 21 22 22 23 22 20 17 16 17 19 19 19 19 20 20 20 20 23 25 26 25 25 26 26 27 28 28 28 28 29 29 30 32 34 35 35 35 34 34 35 35 36 36 36 36 36 36 37
14 14 16 16 17 18 19 19 20 21 23 25 24 18 15 18 20 20 20 19 17 16 16 18 19 18 18 19 20 21 21 21 22 23 24 25 26 27 28 29 30 31 31 31 31 32 32 33 34 35 36 36 36 35 35 36 36 37 37 37 37 37 38
15 15 15 15 16 16 16 16 18 19 20 21 18 14 13 16 18 18 18 17 16 17 17 18 19 20 21 22 23 23 24 23 24 24 25 26 27 28 30 31 32 33 33 33 33 33 33 33 35 36 37 38 38 36 35 36 38 38 38 38 38 38 39
15 15 15 15 16 16 16 16 17 18 18 17 16 15 15 16 17 17 18 18 18 18 18 19 20 21 23 24 25 26 26 26 27 27 27 28 28 29 30 30 32 32 33 33 32 33 34 35 36 36 36 38 39 38 36 37 38 40 40 40 39 39 39
17 17 16 16 16 17 17 17 18 18 17 17 17 16 16 16 17 18 18 19 18 18 18 19 20 21 22 24 25 25 26 26 27 27 27 28 29 29 29 29 30 31 30 30 30 31 33 35 34 34 35 38 39 38 37 38 39 41 42 42 41 40 39
20 19 19 19 19 19 19 19 19 19 18 18 18 18 18 18 18 18 19 19 18 17 18 19 20 21 22 23 24 25 25 26 27 27 27 28 28 29 29 29 29 29 28 28 29 31 32 33 33 33 35 38 38 37 38 39 41 42 42 42 41 41 40
22 21 21 21 21 21 21 21 21 21 21 21 21 21 20 20 20 20 20 19 19 18 19 19 20 20 21 22 23 24 24 25 25 26 26 26 26 27 27 28 28 29 29 29 31 32 32 33 34 35 36 38 38 38 39 41 42 42 42 42 43 43 43
24 23 23 23 23 22 22 22 22 23 24 24 24 24 24 24 23 23 22 22 21 21 20 21 21 21 22 22 23 24 24 24 25 25 24 24 24 25 25 26 27 27 28 29 30 31 32 33 35 36 36 38 39 40 41 42 42 42 43 44 45 45 45
25 25 24 25 24 23 23 23 23 24 24 24 24 25 25 25 26 26 26 25 25 25 25 25 25 25 25 25 25 26 26 26 27 27 26 26 26 26 26 26 27 27 29 30 31 33 34 35 36 36 37 38 40 41 42 42 42 43 44 44 44 45 45
27 26 26 26 26 25 25 25 24 24 24 25 25 26 26 27 27 27 27 27 27 27 27 28 28 29 29 29 29 29 29 29 29 29 29 29 29 29 29 29 30 30 31 32 33 33 34 35 36 38 39 39 40 41 42 43 44 44 44 44 43 43 44
29 28 28 28 28 27 27 26 26 26 27 27 27 27 27 28 28 27 26 26 26 26 27 28 29 30 31 31 31 31 30 30 30 30 30 31 31 31 31 32 32 33 33 34 34 34 34 36 37 38 39 40 41 42 43 44 45 45 44 44 44 44 44
29 29 30 29 29 30 29 29 28 29 29 30 30 29 29 29 29 28 27 26 26 27 28 28 29 30 31 31 31 31 30 30 30 30 30 31 32 32 32 33 34 34 34 34 34 35 35 36 37 38 39 41 42 43 43 44 44 44 44 44 44 44 44
29 30 31 31 31 31 32 32 32 31 32 32 31 31 31 31 31 30 29 29 29 29 30 30 31 31 32 31 31 30 30 29 29 30 30 31 32 33 34 34 34 34 34 34 35 36 37 38 39 40 41 41 41 42 42 43 43 43 44 44 44 45 44
30 32 32 32 32 33 34 34 34 34 34 34 33 33 32 32 33 33 32 31 31 31 31 31 32 32 32 31 31 31 31 31 31 31 31 32 33 34 34 35 35 35 36 35 35 36 37 39 40 40 40 40 40 40 41 42 43 43 44 44 44 44 44

ECMWFFLT1_700_spd_024.txt.gz
Wind_Speed
11 11 11 10 10 11 12 12 11 8 6 6 6 6 6 6 6 6 7 7 8 9 10 11 13 13 13 14 13 14 14 13 16 17 17 16 15 13 12 12 11 12 11 11 11 10 10 11 12 13 13 13 12 12 13 13 14 15 14 13 12 11 10
11 10 10 11 10 10 11 11 10 9 7 5 5 6 6 7 7 6 6 6 6 7 8 8 9 9 9 10 10 10 11 12 14 16 16 15 14 12 11 11 10 11 11 11 11 10 10 11 12 13 14 14 13 14 14 14 14 15 15 14 13 13 12
12 10 10 10 10 9 10 11 10 9 8 6 5 5 6 7 6 5 4 5 5 5 6 6 6 6 6 6 6 6 7 8 9 11 12 12 11 10 10 9 10 10 10 11 11 11 11 11 12 13 12 12 12 13 13 12 12 13 13 14 14 14 14
15 13 11 10 9 9 9 11 10 9 8 7 6 5 5 6 5 4 4 3 4 4 5 5 4 4 3 4 4 4 4 4 5 6 6 7 8 8 8 8 9 9 10 10 10 11 11 11 11 11 11 11 10 10 10 10 10 11 11 12 14 14 14
18 16 13 11 9 9 10 11 10 9 8 7 6 5 4 4 4 4 3 3 3 3 3 4 3 3 3 4 4 4 4 4 4 4 4 5 5 6 6 7 7 8 8 8 9 10 10 10 10 10 10 10 9 9 9 9 9 9 8 9 10 11 11
21 19 17 14 11 9 10 11 10 8 6 5 5 4 3 3 3 3 3 3 3 3 4 4 4 4 4 5 5 5 4 4 4 3 3 3 3 4 4 4 4 4 4 4 5 5 6 6 7 7 7 7 7 7 8 8 8 7 7 8 9 9 9
23 24 25 20 14 10 10 10 9 7 5 4 3 3 2 2 2 3 3 3 4 4 4 4 4 5 5 5 5 5 5 4 4 3 3 2 2 3 3 3 3 2 2 2 2 3 3 4 4 5 6 6 6 7 8 8 9 9 9 10 10 10 10
26 30 30 23 15 10 9 9 7 6 4 2 2 2 2 3 4 4 3 3 3 3 3 3 3 4 4 4 4 4 4 4 3 3 2 1 1 1 1 1 1 1 1 0 1 1 1 2 2 3 4 4 5 5 6 6 7 8 8 9 9 10 10
28 33 30 21 14 10 8 8 6 4 3 1 1 2 3 4 5 6 6 6 5 4 4 3 2 2 1 0 0 0 1 1 1 2 2 3 4 4 4 4 4 4 4 4 3 3 2 2 1 1 1 2 2 3 4 4 4 5 6 7 7 8 8
22 26 24 18 14 11 9 8 6 5 4 3 3 4 5 6 7 9 10 10 10 10 9 9 8 8 7 6 5 5 5 5 5 5 6 6 7 7 7 7 6 6 6 6 5 4 4 3 3 3 3 3 3 3 4 4 5 5 6 7 8 8 8
15 16 18 18 16 14 13 11 9 7 6 5 6 7 8 9 10 11 12 13 13 13 12 12 11 10 9 8 8 7 7 6 6 6 6 6 6 6 6 6 5 5 5 4 4 3 3 3 3 3 4 5 5 6 6 7 7 7 7 8 9 10 10
14 14 17 18 17 16 16 14 12 10 8 8 8 9 10 11 11 12 13 13 13 12 12 11 10 9 8 8 7 7 6 6 5 5 4 4 4 3 3 3 3 3 2 2 1 1 1 1 2 3 4 4 4 5 7 8 9 9 10 10 10 11 12
14 17 20 20 17 16 17 16 14 12 11 10 10 10 10 11 11 11 11 11 11 10 10 10 9 8 6 6 6 5 4 3 3 3 3 4 4 4 4 4 3 3 3 3 3 3 3 3 3 4 4 4 5 5 7 8 10 11 12 12 13 13 14
15 19 22 21 19 18 17 17 16 15 14 12 12 12 11 11 11 10 10 9 8 8 7 7 6 5 4 4 4 4 3 2 1 1 2 3 5 6 7 7 7 7 7 6 6 6 6 6 6 6 7 7 7 8 8 10 11 13 14 15 16 16 17
14 19 22 22 20 19 17 18 19 18 16 15 14 14 13 13 12 11 10 9 8 7 7 7 6 4 3 3 4 4 4 4 4 4 4 5 6 6 7 8 9 9 10 10 10 10 10 10 10 10 10 10 10 10 11 12 13 15 16 17 18 19 19
11 16 20 22 21 19 17 20 23 21 18 16 16 15 15 14 13 12 12 11 11 10 9 8 7 6 5 5 5 6 7 8 8 8 8 8 8 8 8 9 9 9 10 11 12 13 13 13 13 14 14 13 13 13 13 14 15 16 18 19 19 20 20
11 15 18 20 22 19 17 21 24 23 19 17 18 18 16 16 16 15 14 14 14 13 13 12 11 9 9 8 8 9 10 10 11 12 12 12 11 11 10 11 11 11 11 12 13 14 15 15 15 16 16 16 16 16 16 16 17 18 19 20 21 21 21
11 15 18 20 21 21 19 21 25 26 22 19 20 19 17 17 19 18 17 17 17 17 16 16 15 13 12 11 11 11 12 13 14 14 15 15 15 14 14 14 14 13 14 14 15 16 17 17 18 18 19 19 19 20 20 21 21 22 22 23 23 23 23
11 15 18 21 22 23 22 22 25 27 26 22 21 21 20 20 21 19 19 19 19 19 19 17 16 14 13 13 13 14 14 15 16 17 18 18 18 18 17 18 17 16 17 17 18 19 19 20 21 22 23 23 24 25 25 26 25 25 26 26 27 27 26
14 15 18 21 24 25 24 25 27 29 29 26 23 24 24 24 23 22 22 22 22 21 20 19 17 15 14 14 15 17 18 19 19 20 21 22 22 22 21 21 20 19 18 18 18 20 22 23 24 25 27 28 28 29 29 28 27 28 28 29 30 30 30
17 17 17 20 25 27 28 28 29 30 31 28 26 27 28 27 27 26 26 25 24 24 23 22 21 19 18 19 20 20 20 20 20 19 21 23 25 25 25 24 23 21 20 19 19 21 23 24 26 27 29 30 31 31 32 31 30 30 30 31 32 33 33
18 19 18 19 24 27 29 30 30 31 31 29 29 30 31 31 31 31 31 29 29 29 28 27 26 25 24 25 26 25 21 19 18 19 20 23 25 27 28 27 25 22 20 20 21 22 24 25 26 27 29 30 31 33 34 34 33 32 32 32 33 33 33
18 20 20 20 22 26 29 31 32 32 33 33 32 32 33 34 33 33 34 33 35 36 33 30 29 26 25 25 23 22 21 19 19 20 20 21 23 25 26 27 26 23 20 20 21 23 24 25 27 28 29 31 32 34 36 35 35 35 34 34 34 34 34
17 19 21 21 22 25 28 30 33 34 35 35 35 33 34 35 33 33 34 34 36 34 28 24 23 20 20 21 20 20 21 20 19 20 20 19 20 22 23 24 25 24 24 24 25 25 26 27 28 29 31 33 34 36 36 35 36 37 37 36 34 34 34
17 18 20 21 23 24 26 28 31 32 33 35 36 33 32 32 29 30 32 30 28 25 19 17 18 16 17 20 21 21 20 18 18 18 19 20 20 21 22 22 23 24 26 27 28 29 30 31 31 32 34 35 35 35 35 35 37 39 39 37 35 35 36
18 19 21 22 23 24 25 25 27 27 29 32 30 22 20 23 22 23 25 24 22 20 18 17 18 17 19 21 21 19 18 17 18 19 19 21 21 22 23 23 24 25 26 27 29 30 31 33 33 34 35 35 34 33 34 34 36 38 39 38 36 37 38
20 21 22 23 24 25 25 25 26 25 26 28 24 16 15 19 19 18 20 20 19 19 18 18 19 19 20 20 19 19 19 19 20 21 22 22 22 23 24 25 26 27 27 28 29 30 31 32 33 34 34 33 31 31 32 33 35 38 40 39 38 38 39
23 24 24 24 25 25 25 25 26 26 25 25 22 17 16 18 18 18 18 18 18 18 18 19 20 21 21 20 20 20 21 21 22 23 23 24 24 25 26 27 28 28 29 29 30 30 31 32 33 33 32 30 29 31 33 36 38 41 41 40 40 40 40
26 26 26 26 25 25 24 25 25 25 25 23 20 18 17 17 19 19 18 18 18 18 19 20 21 21 21 21 22 22 23 23 24 24 25 25 26 27 28 29 29 30 30 31 31 32 32 32 33 33 32 32 33 35 37 38 40 41 41 40 40 40 41
28 28 27 26 25 25 24 24 24 24 23 22 21 20 19 18 19 20 20 20 19 19 20 20 20 21 22 22 23 24 25 25 26 26 27 27 28 28 28 29 29 29 30 31 31 32 32 32 33 33 33 34 35 37 38 38 39 40 40 40 40 41 42
29 27 26 26 25 24 23 23 23 23 23 22 22 21 20 20 20 21 21 21 21 20 20 20 20 21 22 22 23 24 24 25 26 27 27 28 28 28 28 28 28 28 29 29 30 31 31 32 32 32 33 34 35 37 39 39 40 40 40 40 41 42 43
28 26 25 25 25 24 24 23 23 23 23 23 23 23 22 22 22 22 22 22 22 21 21 21 21 21 21 22 23 23 24 25 26 26 27 27 28 28 28 29 29 29 29 30 30 31 31 32 33 33 34 35 37 39 39 40 40 40 41 42 43 44 45
30 29 27 27 27 27 26 26 26 26 26 26 26 25 26 26 25 25 24 23 22 22 22 22 22 21 22 22 23 23 24 25 27 27 28 28 28 29 29 29 30 30 30 30 30 31 32 32 34 35 36 37 38 38 39 39 40 41 42 43 44 45 46
30 31 30 30 31 31 31 30 29 29 28 28 28 28 28 29 28 28 27 26 26 25 25 24 24 23 23 23 24 25 26 27 28 29 29 30 30 30 30 30 30 30 30 31 31 32 33 34 35 36 37 37 38 38 39 39 41 42 43 44 45 46 46
30 31 32 33 34 35 35 35 34 33 31 29 28 29 30 30 30 30 29 29 29 29 28 27 27 26 26 27 27 28 29 30 30 30 31 31 31 31 31 31 30 31 31 32 33 34 35 36 37 37 38 38 38 39 40 41 42 43 45 46 46 45 45
33 33 33 34 36 37 38 38 37 36 33 31 30 30 31 32 32 32 31 31 31 31 31 31 30 30 30 30 31 31 32 32 32 32 32 32 33 33 33 33 33 34 34 35 35 36 37 37 37 38 38 39 39 40 41 42 43 45 46 46 46 45 45
35 36 36 37 37 37 37 36 36 35 34 33 32 31 32 33 33 33 33 33 32 32 32 32 32 32 32 33 33 34 34 34 34 34 34 34 35 35 35 36 36 37 37 38 38 38 38 38 38 38 38 38 38 39 41 42 44 45 45 45 45 45 45

ECMWFFLT1_700_spd_027.txt.gz
Wind_Speed
11 11 11 10 10 11 13 14 14 13 11 10 9 7 6 5 4 4 5 6 6 7 8 9 9 10 10 10 9 9 10 12 13 14 12 10 9 7 7 8 9 10 10 11 11 11 11 11 10 10 10 10 10 10 10 10 10 11 11 11 11 10 10
14 13 12 12 12 12 13 14 15 14 12 11 9 8 8 7 5 5 5 4 4 5 5 5 5 5 5 5 5 5 5 7 10 12 12 11 11 10 9 9 9 10 10 10 10 10 10 9 9 9 9 10 10 10 11 11 11 11 11 10 10 10 11
17 17 16 15 15 15 14 14 15 15 13 12 10 8 7 6 6 5 5 3 3 2 2 1 1 2 2 1 1 1 2 3 5 8 9 10 9 9 9 9 9 9 9 9 10 10 10 9 9 10 10 10 10 10 10 10 10 9 9 9 9 10 10
19 20 19 19 18 18 18 16 15 16 14 13 11 9 7 6 5 5 4 2 1 1 1 1 1 1 1 2 2 3 3 3 2 2 3 4 5 6 7 8 8 8 9 9 9 10 10 10 9 9 9 9 9 9 9 9 8 8 8 9 9 9 8
21 22 22 22 21 20 19 17 15 16 15 13 11 10 7 5 4 4 3 2 2 2 2 3 3 3 3 3 4 4 5 5 5 4 4 3 3 3 4 5 5 6 6 7 7 7 7 7 6 6 6 6 6 6 6 6 7 7 7 8 8 8 8
22 23 24 24 22 20 19 19 18 16 14 11 11 10 7 5 3 3 3 2 1 2 2 3 3 3 3 3 4 5 5 5 5 5 5 4 4 4 3 3 3 3 3 3 3 3 3 3 3 3 3 4 4 4 4 4 5 6 6 7 8 9 9
23 23 24 25 24 23 24 24 22 17 12 9 9 8 6 3 2 2 2 2 1 1 1 2 2 3 3 4 4 5 5 5 5 4 4 4 4 4 4 4 4 3 3 3 2 2 2 1 2 2 3 3 4 4 4 4 5 6 6 7 7 8 8
22 23 25 26 26 27 28 24 18 14 11 8 7 7 4 2 2 2 2 2 2 1 1 1 2 3 4 5 6 6 6 5 5 5 5 5 5 4 4 4 4 4 3 3 2 2 1 1 1 1 1 2 2 2 3 3 4 4 4 5 5 5 6
20 21 24 25 25 25 23 16 11 9 8 6 6 5 2 1 2 3 3 4 4 3 3 4 5 7 8 9 10 10 10 9 9 9 9 9 8 7 7 6 6 6 5 4 4 3 3 2 2 2 1 2 2 2 2 3 3 4 4 5 6 6 6
19 20 20 22 22 18 12 10 9 8 7 5 4 3 1 2 3 5 6 7 7 7 8 8 9 11 11 12 12 13 13 12 12 12 12 12 11 10 9 8 8 7 6 5 5 4 4 3 3 3 2 2 2 2 2 3 3 4 5 6 7 8 8
18 18 18 18 18 12 8 8 9 7 5 4 3 2 2 4 5 7 8 9 10 11 11 11 11 11 12 12 12 13 12 12 12 11 11 11 10 10 9 8 7 6 5 5 5 4 4 4 4 4 3 3 3 4 4 4 5 5 6 8 9 10 11
16 16 15 16 14 10 8 9 10 8 5 4 4 3 4 6 7 9 10 11 11 12 12 11 11 10 10 10 11 11 11 10 10 10 9 9 8 7 7 6 5 5 4 3 3 3 2 3 3 4 5 5 6 6 6 7 7 8 9 10 11 12 13
13 15 15 14 12 10 9 10 12 10 7 5 5 6 6 7 9 10 11 11 11 11 11 11 10 10 9 8 8 8 8 7 7 6 6 5 5 4 3 3 2 2 1 1 1 1 1 2 3 4 4 5 6 6 7 8 8 9 10 11 12 13 14
11 14 14 13 12 11 11 12 12 11 10 8 7 7 7 8 10 11 11 12 12 12 11 11 11 10 9 8 7 6 5 4 4 3 2 1 1 1 1 1 1 2 2 2 3 3 4 5 5 5 5 5 5 6 7 8 9 10 11 12 13 13 14
9 10 11 13 13 12 13 14 12 11 13 11 9 9 9 10 11 11 12 12 13 12 12 12 11 10 9 8 8 7 6 5 4 4 4 4 4 5 5 5 5 5 5 6 6 6 7 7 8 8 8 7 7 8 8 9 10 11 12 13 13 14 15
8 8 9 11 12 13 15 15 13 12 14 15 13 12 12 12 12 13 13 13 13 13 13 13 12 11 10 9 9 8 8 8 8 8 8 8 8 8 8 8 8 8 8 9 9 9 10 10 11 11 11 10 10 10 10 10 11 12 13 14 15 16 16
7 7 8 9 10 13 16 17 15 14 15 17 17 15 14 14 14 14 15 15 14 14 14 14 14 13 13 12 12 11 11 11 11 11 12 12 12 12 12 11 11 10 11 11 12 12 13 13 13 14 14 14 14 14 13 13 14 16 17 18 18 18 19
7 7 8 9 10 13 17 18 16 15 17 19 20 18 16 17 17 17 16 16 16 16 16 16 16 16 16 15 14 13 12 12 12 13 13 14 15 15 15 14 13 13 14 14 15 15 15 15 16 16 17 17 17 17 17 18 19 19 20 21 21 21 21
10 10 11 11 12 14 17 19 18 17 19 21 23 21 18 17 19 19 18 18 18 19 20 20 19 19 18 17 16 14 13 13 13 13 14 16 17 18 18 17 17 17 18 18 18 19 18 18 18 18 19 19 20 20 21 21 22 22 22 21 22 23 23
13 13 13 13 14 16 18 20 20 20 20 23 25 25 22 19 20 22 21 20 21 22 22 22 22 21 21 19 19 18 17 16 15 15 16 18 20 20 20 20 19 20 20 20 21 21 20 19 19 18 18 20 22 22 23 24 25 26 25 23 24 25 25
15 16 17 16 17 18 20 21 22 23 23 24 26 26 26 24 23 24 25 25 24 24 24 24 24 24 23 22 21 20 19 18 17 16 18 20 21 21 21 22 21 21 21 21 21 22 22 21 20 19 19 21 23 24 25 27 28 29 29 28 28 28 28
17 18 19 19 19 20 22 23 24 25 25 26 26 27 28 28 27 27 28 29 28 27 28 28 28 28 27 26 25 24 22 21 20 20 22 22 21 21 21 22 22 21 22 22 22 23 23 22 21 20 21 23 25 26 28 30 30 31 31 32 32 32 32
18 19 21 21 21 21 23 26 27 28 28 29 29 29 30 31 30 29 31 33 33 31 31 32 33 32 30 28 27 26 25 24 24 25 25 23 22 21 22 21 20 19 19 20 21 22 23 24 23 24 25 26 27 28 30 31 32 32 31 32 33 33 34
18 20 22 22 22 22 23 26 28 30 31 32 33 33 33 33 33 33 34 35 36 36 35 35 37 35 32 30 31 31 30 29 29 27 24 22 22 23 22 20 19 18 18 19 20 21 23 24 25 26 27 27 28 29 31 31 31 31 31 32 33 34 35
19 21 22 22 22 22 23 24 26 29 32 35 36 35 34 35 35 36 37 37 38 39 40 41 39 36 32 31 31 30 29 29 28 25 23 23 24 23 22 20 19 19 21 22 22 22 24 25 25 26 27 27 28 30 31 32 32 32 32 32 33 36 37
20 21 22 23 23 23 24 24 25 27 30 33 34 33 33 36 37 37 38 38 38 37 38 41 39 33 27 25 23 22 21 22 23 23 22 23 23 22 21 20 20 21 22 22 23 23 24 25 26 26 27 28 29 30 31 32 33 34 34 34 34 36 37
23 24 24 25 24 25 25 25 25 26 28 30 30 27 27 30 32 31 30 31 32 30 29 32 32 26 21 20 20 19 19 20 20 21 22 22 21 21 20 20 21 21 21 22 23 24 24 25 26 27 28 29 30 31 32 33 34 34 34 34 35 35 35
25 26 26 26 26 26 27 27 27 27 28 27 25 22 21 22 24 24 23 22 23 24 24 24 23 20 19 20 19 19 19 19 19 20 20 20 20 20 20 20 21 22 22 23 24 25 25 26 27 28 29 30 31 31 32 33 33 34 35 35 35 35 35
29 29 28 28 27 27 28 29 29 28 27 26 25 24 22 21 22 22 21 21 21 22 22 22 21 20 20 19 19 18 18 18 19 19 19 19 19 20 20 21 22 23 24 24 25 25 26 26 27 28 29 30 31 32 32 33 34 35 36 35 35 35 36
31 30 29 28 28 29 30 30 30 30 29 27 26 25 22 21 21 22 22 21 22 22 21 21 20 20 20 19 19 18 18 18 18 18 19 19 20 21 22 23 24 24 25 25 26 26 27 27 28 29 30 31 31 33 34 34 35 36 35 35 35 36 37
33 33 31 30 30 31 31 31 30 29 28 26 25 24 22 21 21 22 22 22 22 21 20 20 19 19 19 20 20 20 19 19 19 19 20 21 22 23 24 25 26 27 27 27 28 28 28 28 29 30 31 31 32 34 34 35 35 35 35 35 36 37 37
32 34 33 32 32 31 29 29 29 28 26 25 25 24 23 21 21 22 22 22 23 22 21 20 19 20 20 20 21 21 21 20 21 21 22 22 23 24 25 26 27 28 28 28 28 28 29 29 29 30 31 32 33 34 34 35 35 36 36 37 38 38 39
27 29 30 32 33 33 31 28 27 25 24 24 24 24 24 23 22 22 22 22 22 22 21 21 21 21 21 22 22 21 21 22 22 22 23 24 25 26 27 28 28 28 28 27 27 27 28 29 29 30 31 32 33 34 35 36 36 37 38 39 40 40 40
26 26 27 30 32 34 35 33 29 27 25 25 25 25 25 25 24 23 22 22 22 22 22 23 23 23 24 23 23 23 23 23 23 24 25 26 28 28 29 30 30 30 29 29 29 29 29 30 31 32 33 34 35 36 37 37 37 38 39 40 40 40 40
27 27 27 27 27 30 33 36 37 36 33 31 30 30 29 29 28 26 24 23 23 24 25 25 25 25 26 25 25 25 25 25 25 26 28 29 30 32 32 32 32 32 31 31 31 31 32 32 33 34 35 37 37 38 38 38 39 39 39 39 39 40 41
31 30 29 28 27 27 30 34 38 39 38 36 35 34 33 32 31 31 30 28 26 26 27 27 27 27 26 26 26 26 27 28 29 30 31 32 33 34 34 34 34 34 34 34 33 33 33 34 35 37 37 38 38 38 38 38 38 37 38 39 40 42 43
35 34 33 32 30 30 31 32 35 37 39 38 37 36 36 36 35 35 35 33 30 29 29 29 28 27 27 27 28 29 29 30 31 32 33 34 35 35 35 34 34 34 35 35 34 34 35 36 37 38 38 38 37 36 36 35 35 36 38 40 42 42 42

ECMWFFLT1_700_spd_030.txt.gz
Wind_Speed
7 8 9 10 11 12 13 15 15 15 14 12 10 9 7 6 5 6 8 9 10 10 11 12 13 14 14 13 13 12 12 13 12 12 13 14 14 13 12 12 12 13 14 13 12 9 6 9 10 10 10 10 10 10 9 9 9 9 10 11 11 11 12
9 10 11 12 13 14 14 15 16 17 16 14 11 9 7 6 5 5 6 7 7 7 7 8 9 10 10 9 8 8 9 10 11 11 12 13 13 12 11 10 10 11 12 12 11 8 6 8 9 8 9 9 9 9 9 10 10 10 11 11 11 11 11
10 11 13 14 14 15 15 16 16 16 15 14 13 10 8 7 6 5 4 4 5 5 6 6 6 7 7 7 7 7 7 8 9 9 10 11 11 11 10 11 10 9 10 10 9 7 7 8 8 7 8 8 9 9 9 9 10 10 10 10 10 9 9
12 13 15 16 16 16 17 17 16 15 14 13 14 13 9 7 6 5 4 3 3 4 5 5 5 6 6 7 7 7 6 6 6 7 7 8 9 9 9 9 9 8 8 8 8 7 7 7 7 7 7 8 8 8 9 9 8 8 8 8 8 8 7
14 15 17 18 19 19 19 18 17 16 16 16 17 15 11 7 6 4 3 3 3 4 5 5 6 7 7 7 8 9 9 8 7 7 7 7 7 7 6 6 6 6 6 6 6 6 6 6 6 7 7 7 7 7 7 6 6 6 6 6 7 7 7
14 17 19 20 21 21 20 20 19 19 20 21 19 16 11 7 5 3 2 3 3 4 5 6 7 7 8 8 8 9 9 10 9 9 9 8 8 8 7 7 6 6 7 7 6 5 5 6 6 6 6 5 5 4 4 4 5 5 5 6 7 8 8
15 17 19 21 22 22 22 22 23 24 22 19 15 13 9 5 3 3 3 3 4 5 5 6 6 7 7 8 8 8 9 10 10 10 10 9 10 10 9 8 8 8 7 7 7 7 7 6 6 6 5 4 3 3 3 3 4 4 5 5 5 6 6
16 18 20 20 20 21 22 24 26 24 15 10 8 9 7 3 2 2 3 4 4 5 5 5 5 6 7 8 8 9 10 10 11 11 11 11 11 11 10 9 9 8 8 7 7 7 7 6 5 5 4 3 2 2 1 1 2 2 3 3 3 3 4
17 19 20 19 18 19 21 23 22 14 6 4 6 6 4 2 3 3 4 4 5 5 6 6 7 8 9 9 10 11 11 11 11 11 11 11 10 10 9 9 9 8 7 7 6 6 6 5 5 4 4 4 4 2 1 1 0 1 2 2 3 3 4
19 20 20 19 18 18 18 16 11 4 2 4 5 4 2 3 4 5 5 6 6 7 8 9 10 11 11 12 12 13 13 13 13 13 12 12 11 11 10 10 10 9 8 7 7 6 6 5 5 4 4 5 5 3 1 1 1 1 2 3 3 4 5
19 19 19 18 16 16 14 10 5 1 1 3 3 3 2 3 4 6 7 8 9 10 11 12 12 13 13 13 14 14 14 14 14 14 14 13 13 12 11 10 10 9 8 7 6 6 5 5 4 4 3 4 4 3 2 0 1 1 2 4 5 6 7
19 18 16 16 14 13 11 8 5 2 1 1 2 2 2 3 4 6 8 9 11 12 13 13 13 13 13 13 14 14 14 14 14 14 13 12 12 11 10 9 8 7 6 5 4 4 3 3 2 2 2 2 1 1 1 2 3 3 4 6 7 8 10
16 15 14 14 14 11 10 9 7 5 5 3 2 3 3 4 6 7 8 9 11 12 13 13 13 13 13 13 13 14 13 13 13 13 12 11 10 9 7 7 6 5 4 3 3 2 1 1 0 1 1 1 2 2 3 4 5 6 7 8 9 10 10
13 13 14 15 14 10 10 11 9 7 7 5 5 5 5 6 7 7 8 9 9 10 11 12 12 12 12 12 12 12 12 12 11 11 10 9 8 6 6 5 4 4 3 3 3 3 3 3 3 3 3 4 5 5 6 6 7 8 9 9 10 10 12
11 13 15 15 13 10 12 13 10 8 8 7 7 6 7 7 8 8 8 8 9 9 10 10 10 10 10 10 10 9 9 8 8 7 7 6 5 5 5 5 5 5 5 5 5 5 6 6 6 6 6 7 7 8 8 8 8 9 9 10 11 13 14
9 11 13 12 11 10 13 14 12 11 11 11 10 9 9 9 9 10 10 10 10 10 11 11 11 10 10 9 9 9 8 7 6 6 6 6 6 7 7 7 7 7 7 8 8 8 9 9 10 10 9 10 10 11 10 10 10 11 11 12 14 16 16
7 8 9 9 9 11 14 15 15 14 14 14 14 13 11 11 11 11 11 11 12 12 13 13 12 12 11 11 11 11 10 10 9 9 9 9 10 10 10 11 11 11 11 11 10 10 11 12 12 13 13 13 13 13 13 13 13 14 14 15 16 17 17
7 7 7 7 8 11 15 16 16 17 16 16 17 16 15 14 13 13 12 13 13 13 14 14 14 14 13 13 13 13 13 13 13 12 12 12 12 13 13 13 14 14 14 14 14 14 14 14 15 16 16 16 16 16 16 16 16 16 17 17 17 18 19
9 9 9 9 9 11 15 17 18 19 18 18 18 19 18 17 16 15 15 15 15 15 15 15 16 16 16 16 16 16 16 15 15 15 15 15 15 14 14 14 15 16 16 17 17 17 17 17 17 17 18 18 17 17 17 17 17 18 19 20 21 21 22
11 12 12 11 11 11 14 17 19 20 20 20 20 20 21 21 19 18 17 17 18 17 18 18 18 19 19 19 19 19 19 18 18 18 18 17 16 14 14 14 15 16 16 17 18 18 19 18 17 17 18 18 17 16 16 17 19 21 22 24 24 25 25
13 13 13 13 13 13 14 17 20 21 21 21 21 22 23 23 23 21 20 19 20 20 20 20 20 21 22 22 22 22 22 21 21 21 20 19 17 16 16 16 17 17 17 17 17 18 19 19 17 17 17 16 15 16 17 19 21 23 25 25 26 26 26
14 14 14 14 14 14 15 18 21 22 23 23 23 23 24 25 26 25 24 23 22 23 23 23 24 24 24 24 24 24 25 25 24 23 22 21 21 20 20 20 19 19 18 18 18 18 18 17 17 16 16 16 16 17 18 20 22 24 25 26 26 27 27
15 15 15 16 16 15 16 18 21 23 25 26 26 26 26 26 27 28 28 27 27 27 27 27 27 27 26 27 27 27 27 28 28 26 25 25 26 26 26 24 22 20 20 20 19 18 17 16 17 17 17 17 18 18 19 21 23 24 25 26 27 28 28
16 16 17 18 18 18 17 18 21 24 26 28 29 29 29 29 29 30 30 30 30 30 31 30 30 29 29 30 31 31 31 32 32 31 29 28 29 29 29 28 25 22 21 20 19 19 18 18 18 19 19 19 19 20 20 22 23 24 26 28 29 29 29
17 18 19 20 21 21 20 19 20 23 26 29 31 31 31 32 32 32 33 32 32 32 32 32 31 31 31 33 34 34 35 35 34 34 34 34 34 34 33 30 27 23 22 21 20 20 20 20 20 21 21 21 21 21 22 23 24 26 27 28 29 30 30
17 18 19 21 22 23 22 21 21 22 25 28 31 33 34 35 34 33 34 34 33 32 33 33 32 32 33 35 36 37 39 39 38 36 34 32 30 30 29 27 25 23 22 21 20 21 21 21 21 22 22 22 22 23 24 24 25 26 28 28 29 31 32
18 19 19 21 22 24 25 24 23 24 25 27 30 33 35 36 36 35 35 35 35 34 34 34 34 35 36 38 38 38 38 40 40 36 28 23 20 21 21 22 21 21 21 19 19 20 20 20 21 22 23 23 23 24 25 25 26 27 29 29 30 32 34
21 21 20 21 22 24 26 27 27 26 25 26 29 31 32 31 32 32 32 33 34 34 33 33 32 32 32 32 32 31 29 28 29 26 21 18 18 18 19 19 19 19 19 19 19 20 20 21 22 23 24 24 25 26 26 27 28 29 30 31 32 34 34
23 23 22 22 23 24 26 28 29 29 28 29 30 31 28 26 26 27 28 28 28 27 27 27 26 25 23 22 22 22 20 18 19 18 18 18 18 18 18 18 18 19 19 20 20 21 21 22 23 23 24 25 26 27 28 28 29 30 31 32 33 34 34
24 24 25 25 25 25 26 29 31 31 31 30 31 31 28 26 26 26 27 26 25 24 24 24 23 21 19 18 18 19 18 17 17 17 17 18 18 18 19 19 19 20 20 20 20 21 21 22 23 23 24 25 26 27 27 28 29 30 31 32 32 33 34
28 28 28 28 28 28 28 29 31 33 32 31 30 30 28 27 27 27 27 27 26 24 23 23 22 21 19 18 18 17 17 17 17 17 17 18 19 19 19 19 19 20 20 20 21 22 22 23 23 23 24 25 26 27 27 29 30 31 32 33 34 34 35
29 30 31 31 31 31 30 30 31 34 35 33 30 28 27 26 25 25 26 26 24 24 23 22 21 20 19 19 18 18 17 17 18 18 18 19 19 19 19 20 20 20 20 21 22 23 24 24 24 25 25 26 27 28 29 30 32 33 34 35 36 36 37
31 31 31 32 33 33 33 32 31 32 34 34 32 29 27 25 23 23 24 24 24 24 23 23 21 20 20 19 18 18 18 18 19 19 19 20 20 20 20 20 21 21 21 22 23 24 25 25 26 26 27 28 29 30 31 32 33 35 35 36 37 37 38
34 33 33 33 33 33 34 33 30 28 30 32 33 31 29 26 25 24 23 23 24 24 24 22 21 20 20 19 19 19 19 20 21 21 21 21 21 21 20 21 22 22 22 23 24 25 25 26 26 27 28 29 30 31 32 33 34 35 36 37 37 38 38
35 35 34 33 33 33 33 33 32 30 30 30 31 31 31 30 28 26 24 22 22 22 23 23 22 21 20 20 20 20 21 21 22 21 22 22 22 21 21 21 22 23 24 25 25 26 27 27 27 28 29 30 31 32 34 35 35 36 37 38 38 37 37
37 36 35 35 34 34 34 34 34 33 32 31 30 31 32 33 32 30 28 27 25 24 23 23 23 23 23 23 22 22 22 22 21 22 22 23 22 23 22 22 23 24 25 26 27 28 28 29 29 30 31 32 33 34 35 35 36 36 37 38 37 36 36
41 39 38 37 37 36 35 35 34 33 33 32 31 31 31 32 34 35 35 35 34 32 30 27 26 25 25 25 25 24 24 23 23 23 23 23 24 24 24 24 25 26 27 28 29 29 30 30 30 31 32 33 34 35 35 34 35 36 37 37 36 35 37

ECMWFFLT1_700_spd_033.txt.gz
Wind_Speed
2 4 5 6 7 8 9 9 10 12 12 13 13 13 14 14 13 11 10 8 6 5 5 5 7 9 10 11 12 12 12 11 11 11 11 11 12 12 12 11 10 9 9 9 9 8 7 6 7 7 7 6 6 7 7 7 7 7 8 9 9 9 10
3 5 7 8 9 9 10 11 12 12 12 12 12 12 12 12 13 13 10 8 6 4 4 4 5 7 9 11 11 11 12 12 12 12 10 11 11 11 11 10 9 9 8 8 9 8 6 5 5 5 6 6 6 6 7 7 8 8 9 10 10 10 10
4 6 7 9 11 11 12 13 14 15 14 13 12 11 11 12 13 13 10 7 5 4 4 5 5 7 8 8 8 9 11 12 12 11 11 11 11 9 8 9 9 8 7 5 6 6 6 5 4 4 5 5 5 6 7 8 9 9 9 9 9 9 8
4 6 8 10 12 13 15 16 17 17 17 16 15 14 12 11 12 12 10 7 5 4 4 5 6 6 6 6 6 6 7 9 10 9 10 11 9 8 8 8 8 8 6 5 5 6 6 5 4 4 4 4 5 6 7 8 9 9 8 7 7 7 7
6 7 9 11 13 15 17 18 18 18 17 18 18 16 14 12 10 10 10 7 5 4 4 5 6 6 5 5 5 4 5 6 6 7 7 8 7 7 7 7 7 7 5 4 4 5 4 3 3 4 4 3 4 4 5 6 6 6 6 6 6 7 7
8 9 11 12 14 16 18 18 18 18 18 19 19 15 12 10 8 9 9 6 4 3 4 5 5 6 6 6 6 5 5 5 5 6 7 7 7 7 7 8 7 7 6 5 4 4 3 3 3 3 2 1 2 2 3 3 4 5 5 6 7 7 7
10 10 12 13 15 17 18 19 18 19 20 18 14 9 7 7 6 7 7 5 4 4 4 5 6 6 6 7 7 6 6 6 6 7 8 8 8 8 9 9 8 8 7 6 5 5 4 4 3 3 2 1 1 2 3 4 4 5 5 5 5 6 6
12 12 13 15 16 17 18 18 18 19 17 11 6 3 3 4 5 6 5 4 4 4 5 6 6 6 6 7 7 8 7 7 7 8 9 9 9 10 9 8 7 7 6 6 6 6 5 5 5 4 3 2 3 4 3 1 4 4 3 4 4 4 5
14 14 15 16 17 18 18 17 17 16 10 4 1 1 0 2 3 4 4 3 4 4 5 6 7 7 7 7 8 9 9 9 9 9 9 9 10 10 9 8 7 7 7 6 6 5 4 5 4 5 5 5 5 4 5 4 3 2 2 3 3 3 4
15 15 17 17 18 19 18 16 15 12 6 2 1 1 0 2 3 3 3 4 4 5 6 7 7 8 9 9 9 10 10 10 10 10 10 10 10 10 9 9 8 8 7 7 6 5 5 5 5 6 6 7 6 2 2 3 1 0 1 2 3 3 4
16 16 18 18 18 19 17 15 13 10 6 3 1 0 0 2 3 4 5 5 6 7 7 8 9 10 10 11 11 12 12 12 12 12 12 11 11 11 10 9 9 9 8 8 8 7 7 7 7 7 5 5 6 3 2 2 2 1 2 3 4 5 6
17 17 18 19 19 18 15 13 11 8 7 4 1 1 1 2 4 5 6 7 7 8 9 9 10 11 11 12 12 12 13 13 13 13 13 12 12 11 10 9 9 9 8 8 7 7 7 7 6 6 4 3 3 3 3 3 2 3 3 5 6 6 7
17 18 18 19 19 17 14 12 10 9 8 4 2 2 2 4 5 6 7 7 8 8 9 9 9 10 10 11 11 11 12 12 12 12 12 11 11 10 9 8 7 7 6 6 5 4 4 4 3 2 2 2 2 2 3 4 5 5 5 6 6 6 7
19 19 18 17 16 15 14 12 10 10 9 5 4 3 4 5 6 7 8 8 9 8 8 7 7 8 8 8 8 9 9 10 10 10 10 9 9 8 7 6 5 4 4 3 3 2 2 1 1 2 3 3 3 4 5 7 8 7 7 7 7 8 9
19 17 15 15 15 14 14 13 10 11 10 7 6 5 6 7 8 9 9 10 9 8 7 7 6 6 6 7 6 6 6 7 6 7 6 6 6 5 4 3 3 2 2 2 2 3 3 3 5 5 5 6 6 7 7 9 10 9 8 8 8 9 11
15 13 13 14 14 13 13 12 11 12 10 8 8 7 7 8 9 10 11 11 10 9 8 7 6 6 6 6 6 5 5 4 4 4 4 4 4 4 3 3 3 3 4 4 5 5 5 6 7 8 8 9 9 9 10 10 11 11 11 11 11 11 11
10 10 11 12 11 10 10 10 11 13 12 10 10 9 8 9 10 11 12 12 11 10 9 9 8 8 7 7 6 6 5 5 5 5 6 6 6 6 6 6 6 6 6 6 7 8 8 9 10 10 10 12 12 12 12 12 12 13 14 14 13 13 13
6 7 7 8 8 9 9 10 11 14 14 12 12 12 11 10 11 12 12 12 12 12 11 11 11 10 10 9 9 9 8 8 8 8 9 9 9 9 9 9 9 9 9 9 9 10 10 11 13 14 14 15 16 15 14 14 14 14 14 14 15 15 16
6 6 6 7 8 8 9 10 12 14 15 15 14 14 14 13 12 12 12 13 13 13 13 12 12 12 12 12 12 11 11 11 11 12 12 13 13 13 13 13 12 12 11 11 11 11 12 12 14 16 16 17 19 17 14 15 16 15 14 15 17 18 18
9 9 9 9 9 9 10 11 13 15 16 17 16 16 16 16 16 15 14 14 14 14 14 14 14 14 14 15 15 15 15 15 15 16 16 16 17 17 17 17 16 15 14 13 12 12 13 13 15 16 16 17 17 15 13 14 15 14 15 16 18 18 19
11 12 12 11 10 9 9 11 13 15 17 18 18 18 18 18 18 18 18 18 17 18 18 17 17 17 17 17 17 18 18 18 19 19 19 20 21 21 21 21 20 19 17 16 15 15 15 15 15 16 16 16 15 13 11 11 13 14 15 16 18 18 19
13 13 12 11 11 9 8 10 12 15 18 19 20 20 20 20 20 21 21 21 21 21 20 20 20 19 19 19 19 19 21 21 21 22 22 23 24 25 25 25 24 23 21 20 19 18 17 17 17 16 15 13 12 12 11 12 13 14 14 16 17 19 20
14 13 12 12 10 9 9 11 12 15 18 20 22 23 23 22 22 22 23 23 24 24 23 23 23 21 20 21 20 21 22 23 23 25 25 26 27 27 28 29 29 28 27 26 23 20 18 17 17 17 15 13 13 13 13 14 14 14 14 16 18 19 21
14 14 14 14 13 12 12 13 13 15 17 20 23 24 24 24 24 25 24 24 26 27 27 28 27 24 24 24 23 24 25 25 27 27 28 29 30 31 31 31 31 31 30 30 26 21 18 18 17 17 15 14 14 15 15 15 16 16 16 16 18 21 24
15 16 16 16 15 15 16 16 16 16 17 19 21 23 25 26 27 27 26 26 27 29 30 30 29 28 28 28 28 28 28 29 30 30 30 32 32 34 35 33 32 32 32 30 27 21 17 17 17 17 16 15 15 16 16 16 17 17 18 19 20 22 25
16 16 17 17 17 18 18 19 20 20 20 20 19 21 24 26 28 29 28 28 30 32 33 31 29 29 31 30 30 30 30 31 33 32 33 35 35 37 38 34 32 31 28 24 21 18 15 16 16 16 15 15 15 16 17 18 18 18 20 21 22 24 26
18 18 18 19 19 19 20 22 22 23 23 22 20 19 22 25 28 31 32 32 34 35 36 34 30 30 30 29 29 30 30 33 35 36 37 38 37 37 37 34 29 23 17 13 13 12 12 13 14 14 14 15 16 17 18 19 19 20 21 22 24 25 26
20 20 21 21 21 22 23 24 24 25 25 24 23 22 23 25 27 31 33 35 36 37 38 37 35 33 33 31 31 31 32 34 37 38 38 37 34 32 31 30 25 17 12 9 8 9 10 11 12 14 15 16 17 18 19 19 19 21 22 23 24 25 26
21 21 22 22 23 24 25 26 26 26 26 26 26 26 26 25 27 30 31 32 33 35 36 36 34 34 34 33 31 30 31 33 34 34 31 28 24 20 19 19 17 14 12 10 9 11 12 12 13 15 16 17 18 19 19 20 21 22 23 24 25 26 27
20 21 21 21 23 23 24 25 27 27 26 26 27 27 27 27 28 29 30 30 30 30 31 31 29 29 29 28 27 27 28 29 28 25 23 21 18 15 14 14 13 13 13 12 12 13 13 14 15 16 17 18 19 19 20 21 22 22 23 24 25 27 28
23 23 23 24 25 25 25 26 27 28 29 29 30 30 30 30 29 28 30 31 29 30 31 29 27 26 26 25 24 25 25 24 22 20 19 18 17 15 14 14 14 14 13 13 13 14 14 16 17 18 18 19 20 21 20 20 22 23 24 25 26 28 29
27 28 28 29 30 30 29 29 30 31 31 32 32 33 33 32 30 30 31 31 30 31 32 30 27 27 26 25 25 25 23 21 20 19 18 18 18 16 15 15 15 15 15 15 15 15 16 17 18 19 20 20 22 22 21 20 22 24 25 26 28 29 30
32 32 32 32 33 33 33 32 33 33 33 33 33 34 35 35 34 33 33 32 31 31 30 28 28 27 27 26 26 25 24 22 21 19 18 19 19 18 18 17 16 16 17 16 16 17 18 18 19 20 20 21 22 23 22 21 23 25 27 28 30 31 32
35 35 34 33 34 34 34 34 35 35 36 36 36 37 39 38 35 34 33 31 30 28 26 26 26 25 25 26 26 25 25 24 22 21 20 21 21 21 20 18 18 18 18 18 18 19 19 19 19 19 20 20 22 23 24 24 25 27 29 30 31 32 32
37 37 36 36 36 36 36 36 36 36 37 37 37 39 40 37 32 31 30 28 28 28 27 26 26 26 25 26 26 26 26 26 23 22 22 22 23 23 21 19 19 19 19 19 20 20 20 20 19 19 20 21 22 23 25 27 27 28 30 31 31 32 33
40 40 40 40 40 39 39 38 37 38 38 38 38 39 40 37 32 31 30 27 27 29 27 26 26 27 26 26 26 27 27 27 25 23 22 23 24 24 21 20 20 21 21 21 21 21 21 21 21 21 22 22 23 24 26 28 29 29 30 31 32 32 34
44 44 45 45 44 43 42 41 40 40 40 40 40 40 40 38 36 35 35 32 29 28 27 26 26 26 25 24 25 26 27 27 26 25 24 25 25 24 22 22 23 22 22 23 22 22 22 22 23 24 24 25 25 26 27 28 29 30 31 32 33 34 36

ECMWFFLT1_700_spd_036.txt.gz
Wind_Speed
2 1 2 3 4 5 5 6 7 8 8 8 7 7 7 8 8 8 8 8 5 0 4 6 8 9 9 10 10 9 9 9 10 10 9 9 8 8 9 9 7 7 8 9 8 8 6 6 8 7 5 3 2 2 2 2 1 2 3 3 3 5 7
2 2 2 4 5 6 7 8 10 10 9 9 8 8 8 8 8 8 8 8 6 1 4 5 6 7 8 10 10 10 10 10 11 10 9 9 7 6 7 7 8 8 8 9 8 8 8 7 7 6 5 4 4 3 2 1 2 4 4 4 4 5 5
3 3 4 5 6 8 9 11 12 11 11 9 10 10 10 9 7 7 6 7 7 2 3 5 6 5 5 8 10 10 10 10 9 7 8 9 7 6 6 5 7 8 7 7 8 9 9 7 6 6 6 5 4 4 3 3 3 3 4 5 4 2 3
5 5 5 6 7 9 10 12 12 12 12 11 11 12 12 10 8 6 5 6 6 4 2 5 6 5 5 6 8 9 10 10 9 8 9 9 7 7 6 5 7 8 7 6 8 9 9 8 7 7 7 6 4 4 4 3 3 2 2 3 3 2 2
7 7 7 7 9 10 11 12 14 14 13 13 14 13 11 8 7 6 4 4 4 3 2 4 4 4 4 5 6 8 9 9 9 10 11 10 8 8 7 7 8 7 6 6 7 9 9 8 7 6 6 5 4 3 2 1 1 1 1 2 2 3 2
10 9 9 10 10 11 12 13 15 15 15 15 14 11 8 5 5 4 3 2 3 2 3 3 3 4 4 5 6 7 7 6 7 9 10 10 9 9 8 8 7 6 6 7 7 8 8 7 7 6 5 4 3 3 3 2 1 2 3 3 3 4 5
12 12 11 11 12 13 13 14 15 15 15 15 11 7 4 4 5 3 2 1 2 3 4 4 3 3 3 4 6 6 6 5 6 7 8 10 10 9 9 9 8 8 9 10 10 9 8 8 8 7 4 4 4 5 2 3 3 4 4 5 5 6 6
15 13 13 13 13 14 14 14 16 15 15 12 8 4 1 3 4 3 2 2 3 3 4 5 5 4 4 5 6 7 7 6 6 7 8 10 11 11 10 9 9 9 10 11 12 11 10 10 10 8 6 8 8 8 3 2 3 5 4 5 6 6 6
17 15 14 14 14 14 14 15 16 15 13 10 5 2 0 3 3 2 3 3 3 4 4 5 5 6 6 7 7 7 7 7 7 8 8 9 11 10 10 9 9 9 9 9 9 9 9 11 13 10 10 12 12 11 10 8 1 3 4 6 6 5 5
18 17 16 15 14 14 14 15 15 14 12 8 4 2 0 2 3 2 3 3 4 4 5 5 5 6 7 7 7 7 7 7 7 8 8 9 10 9 9 9 9 9 9 8 7 6 7 9 12 12 13 14 13 11 9 8 3 2 4 5 4 3 3
19 18 16 14 13 13 14 14 14 12 10 7 5 3 1 2 3 3 3 3 4 4 5 5 5 6 6 7 7 7 7 7 7 8 8 9 9 8 8 8 9 9 9 9 8 8 9 8 9 9 9 12 12 8 5 4 5 4 2 3 2 2 2
19 17 15 13 13 13 14 13 12 11 10 7 6 5 3 3 3 3 4 4 4 5 5 6 6 6 6 6 6 7 7 7 8 8 9 9 9 9 9 9 9 10 10 10 9 9 8 8 7 7 7 9 10 7 3 4 5 4 2 1 1 1 1
18 16 14 13 14 14 14 12 11 10 10 8 7 6 4 4 4 4 5 5 5 5 5 6 6 6 6 6 7 7 8 8 8 9 9 10 10 10 10 10 10 10 10 10 9 8 7 6 6 6 6 7 6 4 1 1 1 2 2 3 3 3 3
17 15 14 15 15 15 13 11 10 10 10 9 8 7 5 5 5 5 6 6 6 6 6 6 6 6 7 7 7 7 7 7 8 8 9 10 10 10 10 10 9 9 8 8 7 6 5 4 4 4 4 4 4 4 5 4 4 4 5 5 5 5 6
16 16 15 15 15 14 12 11 11 11 10 9 9 7 6 6 6 6 6 7 7 6 6 6 6 7 7 8 7 7 7 7 8 8 8 8 8 8 8 7 7 6 5 5 4 3 3 3 3 3 2 3 4 5 7 8 7 6 7 7 7 8 8
17 16 14 14 15 12 11 11 12 12 10 9 8 7 7 7 7 8 7 7 7 6 6 6 6 6 7 7 7 6 6 6 5 5 5 5 5 4 4 3 3 2 2 1 1 1 2 4 4 3 3 5 5 7 8 10 11 10 10 10 10 10 9
16 15 13 13 12 10 9 10 10 10 9 8 7 6 7 8 8 8 7 7 6 6 6 6 5 5 5 5 4 4 4 3 2 2 1 1 1 1 1 2 2 3 3 3 4 4 4 7 7 6 8 8 8 9 10 11 12 13 13 13 14 13 11
14 13 11 10 8 6 6 6 6 6 6 7 7 6 6 7 8 8 8 8 7 7 6 6 5 5 5 4 4 4 4 4 4 4 5 4 5 5 5 6 6 6 7 7 7 7 7 10 10 10 11 12 11 11 12 12 13 14 15 15 15 14 13
16 13 10 8 5 4 4 5 5 4 5 6 8 7 7 7 8 8 9 9 9 9 8 8 8 8 7 7 7 7 6 7 8 8 9 9 10 10 10 10 10 10 11 10 10 10 10 12 12 11 13 14 13 12 12 13 14 15 15 15 15 14 13
14 10 7 6 5 6 6 6 6 5 5 6 8 9 9 9 9 9 10 10 10 10 10 11 11 10 10 10 10 10 10 10 11 12 13 13 14 14 14 15 14 14 14 14 14 14 13 13 13 13 14 16 15 15 15 14 13 14 13 14 14 14 14
7 6 6 6 7 8 7 8 8 8 7 6 8 10 11 11 11 11 11 11 11 12 12 12 12 13 13 13 13 13 13 13 14 15 16 17 18 18 18 19 18 18 17 17 17 17 16 16 16 16 16 17 17 15 14 13 12 13 12 12 13 13 13
5 5 6 7 8 8 8 9 10 10 9 8 8 10 12 12 12 13 13 14 14 14 14 14 14 15 15 16 16 16 16 16 17 18 18 19 21 21 21 22 23 21 21 21 20 20 20 20 20 19 17 17 17 14 12 11 11 12 12 12 13 13 14
7 7 8 8 8 8 8 7 7 8 9 10 9 10 12 14 14 14 15 15 16 17 17 18 17 17 18 18 18 18 18 19 20 20 21 22 22 23 24 25 25 23 23 23 22 23 24 24 24 24 21 18 16 14 13 12 12 12 13 13 14 14 15
8 9 9 9 9 9 9 8 7 7 9 10 10 10 12 13 15 15 16 17 17 18 20 21 20 19 20 21 22 22 22 23 23 24 25 25 26 27 27 26 25 24 24 23 24 25 26 27 27 28 27 22 17 15 15 13 13 13 13 14 15 16 17
10 10 10 10 11 11 11 10 10 10 9 9 10 11 12 14 16 17 17 18 19 21 23 23 21 21 22 24 26 26 27 27 27 27 28 29 30 30 26 24 24 24 23 24 26 27 28 29 30 29 27 23 19 15 14 13 13 14 14 15 17 17 17
10 10 10 11 12 13 12 13 13 14 12 11 12 13 14 15 17 19 19 20 21 24 26 25 23 23 23 24 26 28 28 29 29 30 31 33 33 30 27 26 26 26 26 28 28 28 28 29 27 23 22 21 17 14 13 13 14 15 15 16 17 18 18
11 10 11 13 14 15 15 15 16 16 14 12 12 14 14 14 16 18 19 20 21 25 27 26 24 23 24 26 27 28 29 29 30 31 32 33 33 32 30 30 29 28 28 27 26 25 25 21 16 15 16 17 15 13 13 14 15 16 17 17 18 19 18
13 12 13 14 15 17 17 17 18 18 17 16 16 17 17 17 17 18 19 20 21 25 28 27 25 25 26 28 30 30 31 31 33 34 36 36 34 33 32 32 30 27 25 22 20 18 17 14 12 12 14 13 12 12 13 14 15 16 17 18 19 20 19
15 15 15 15 16 19 20 20 20 21 21 20 19 20 20 20 20 20 21 21 23 25 28 28 27 25 25 27 29 30 31 32 34 36 39 39 36 33 31 29 27 23 19 18 16 13 12 12 11 11 12 12 12 12 13 14 16 17 17 18 19 19 20
17 18 17 17 19 22 22 21 21 21 21 21 21 22 22 23 23 23 24 24 25 26 28 29 29 26 23 23 24 26 28 30 32 34 36 37 36 32 28 24 21 18 16 14 13 12 11 11 11 11 12 12 12 12 13 15 16 17 17 17 18 19 19
19 20 19 20 22 23 22 22 22 23 24 25 25 26 26 27 28 28 29 29 29 30 31 31 29 25 23 23 24 25 27 28 29 31 33 33 32 29 24 21 20 18 15 13 13 14 13 13 13 12 12 13 13 13 14 16 16 17 17 18 18 19 19
21 22 22 22 24 25 25 25 26 27 29 30 30 29 29 30 31 32 32 33 32 33 33 32 29 26 26 27 27 27 28 29 29 31 30 29 28 27 24 23 22 18 14 13 14 15 14 14 14 14 14 15 15 14 14 15 17 17 17 18 18 19 20
24 25 25 26 28 30 31 32 32 32 33 33 33 33 33 33 34 34 34 34 34 33 34 33 32 32 32 31 30 29 29 30 30 31 30 28 27 26 25 24 21 17 15 15 15 15 14 15 15 15 16 16 16 16 14 15 16 17 17 18 19 20 21
29 30 31 32 33 35 36 36 36 36 36 36 36 35 35 36 36 35 34 35 35 34 33 34 33 33 32 31 30 29 29 30 31 31 30 28 27 26 25 23 20 17 16 17 17 16 16 16 17 17 17 17 18 18 16 15 16 18 18 19 20 21 22
32 33 34 35 36 38 38 38 38 38 37 37 37 36 35 36 36 34 34 35 35 35 36 35 32 31 31 31 30 29 29 30 31 30 28 27 28 28 26 22 20 19 19 19 19 18 19 19 18 18 18 18 19 19 19 18 18 19 20 20 21 22 24
36 37 38 38 39 40 39 39 39 38 38 38 38 37 37 37 37 37 37 38 38 38 38 36 33 30 28 28 29 28 28 28 28 28 28 27 28 28 24 21 20 21 21 21 21 20 21 20 20 19 19 19 20 20 21 21 21 21 21 22 23 24 25
40 41 41 42 42 42 41 41 41 40 40 40 39 39 39 39 39 40 40 41 41 40 39 37 34 31 29 28 29 28 28 27 27 29 29 28 28 27 22 20 21 23 23 23 23 22 22 21 21 20 20 20 21 22 22 23 23 22 22 23 24 25 26

ECMWFFLT1_700_spd_042.txt.gz
Wind_Speed
14 11 9 8 7 6 5 4 3 2 2 2 3 3 4 5 5 5 5 5 5 6 8 9 10 12 12 12 12 12 12 13 14 14 15 15 14 14 13 12 11 10 10 10 11 10 9 9 11 13 12 11 9 8 8 7 6 5 5 5 5 5 5
13 11 8 7 6 5 5 4 3 2 1 1 3 4 5 6 6 7 8 7 7 7 7 7 9 10 11 11 11 11 12 12 12 13 14 14 14 14 13 13 12 11 11 11 12 12 11 10 9 10 10 9 9 8 7 8 6 6 7 7 7 6 6
12 11 8 7 6 5 4 3 3 2 1 1 3 5 6 8 8 8 10 10 9 8 7 7 7 8 9 10 11 11 11 11 11 12 12 12 12 12 12 12 12 11 11 10 11 11 12 12 10 9 10 9 9 8 8 9 7 7 8 9 7 6 6
10 9 7 6 4 3 2 2 3 4 4 4 4 6 7 9 9 9 11 12 11 9 7 7 7 7 7 8 9 10 11 11 11 12 12 11 11 11 11 11 11 10 10 10 11 11 11 12 10 10 11 11 11 10 10 10 9 8 9 9 6 5 5
10 8 7 6 4 1 1 2 3 4 5 5 6 7 7 8 10 10 12 13 12 10 8 8 8 8 7 7 7 8 10 11 12 11 11 11 11 11 11 10 10 10 10 10 11 11 11 11 10 10 11 11 11 11 10 10 10 10 10 8 5 4 4
12 10 9 8 5 3 1 2 3 5 6 6 6 6 5 6 8 9 11 13 12 10 8 8 8 8 8 7 7 6 7 10 11 11 10 10 10 10 10 9 9 9 9 10 11 11 12 11 10 10 10 11 11 11 11 11 10 10 8 6 4 4 4
14 13 11 9 7 4 2 3 5 7 7 7 6 5 2 3 5 7 10 11 9 8 7 6 7 7 6 6 6 6 6 8 8 8 9 9 8 8 8 8 7 7 9 10 11 11 11 9 9 9 10 11 11 12 11 11 10 8 7 6 5 5 5
16 15 13 11 8 6 4 4 5 7 8 7 6 4 2 1 3 5 7 8 7 6 6 5 6 6 6 6 6 6 6 6 6 7 8 8 7 8 8 7 6 7 8 9 9 11 10 8 8 9 10 10 10 10 11 10 10 10 8 7 6 6 5
18 17 15 13 11 8 5 4 5 6 7 5 4 3 2 1 3 4 5 6 6 6 6 6 6 6 5 5 5 5 6 6 5 6 6 7 7 7 8 8 7 8 8 8 9 10 10 10 10 10 10 10 7 7 10 12 12 11 10 8 6 6 5
18 17 16 14 12 9 6 5 5 6 6 4 2 1 1 0 2 3 4 5 5 6 6 7 6 5 5 5 5 5 5 6 7 7 7 7 7 7 8 8 8 7 7 8 9 10 10 10 10 10 10 9 8 6 9 13 12 12 11 9 7 6 5
19 17 16 15 13 10 7 5 6 6 6 3 1 2 1 1 2 3 4 5 6 7 7 7 7 6 5 5 5 4 5 6 8 9 9 9 8 8 8 8 8 8 7 8 10 10 9 9 8 8 6 8 10 9 10 11 11 10 9 8 7 6 5
20 18 17 16 14 10 7 6 6 7 6 3 2 3 2 1 2 3 3 4 5 7 7 8 7 7 6 5 5 4 5 6 7 9 9 9 9 8 8 8 8 8 8 9 10 8 7 6 5 3 4 8 10 10 11 11 10 8 7 6 6 5 5
21 19 18 18 16 11 8 7 8 8 6 4 2 3 3 2 2 3 4 4 6 7 7 8 8 7 7 6 5 5 5 5 5 7 8 8 8 7 7 7 7 8 7 7 7 5 5 5 4 2 3 6 8 8 9 10 9 7 6 6 5 5 5
21 20 19 19 16 11 9 8 9 8 6 4 3 3 3 3 3 4 5 6 7 7 8 8 8 9 8 7 7 7 7 6 6 6 7 7 8 7 7 6 6 7 7 6 5 5 5 5 4 2 2 3 5 5 5 5 5 5 6 6 6 6 7
23 23 22 20 15 10 9 9 8 7 5 4 4 5 5 5 5 5 7 8 8 9 9 9 10 10 10 10 10 10 10 9 8 8 8 8 9 9 9 8 7 7 7 6 5 4 4 4 3 2 2 2 2 2 3 3 3 4 6 7 7 7 8
25 24 24 22 15 10 9 9 8 7 6 5 6 7 7 6 6 7 9 11 11 11 11 11 11 12 12 12 12 12 12 12 11 10 10 9 9 10 11 10 10 9 7 6 4 4 5 4 4 3 4 4 3 4 5 5 6 7 8 9 9 9 10
26 25 27 25 16 11 10 9 8 8 7 7 8 8 8 7 7 9 11 12 12 12 12 12 12 13 13 14 14 14 13 14 14 12 11 11 10 10 11 10 10 9 7 6 5 4 5 5 5 5 5 6 6 7 8 9 9 10 11 12 13 13 12
28 29 30 25 18 13 11 8 8 9 8 9 9 8 8 7 8 11 13 13 13 13 13 13 13 13 14 15 14 14 14 14 14 13 12 12 11 10 10 10 9 8 8 7 6 5 5 5 6 7 7 8 9 10 11 12 12 12 13 14 15 16 15
28 30 28 23 19 14 10 9 9 9 9 10 10 9 8 8 10 11 13 14 13 13 13 14 14 13 14 15 14 14 13 14 13 13 13 12 11 11 10 9 9 8 8 7 6 6 7 7 8 9 10 11 12 12 13 13 14 15 14 15 16 17 17
22 24 24 22 18 13 10 11 11 9 9 10 11 10 9 9 10 11 13 13 13 13 13 13 14 13 13 14 14 13 13 13 13 12 12 12 12 11 10 9 9 8 8 8 8 9 9 10 11 12 13 14 14 14 15 16 17 18 17 17 17 18 19
17 20 22 21 17 15 14 14 11 9 10 11 12 12 11 10 10 11 12 13 13 13 13 13 13 13 12 12 12 13 13 13 13 13 13 12 11 11 10 10 10 10 10 11 11 12 12 13 14 15 15 16 16 17 18 18 19 21 21 20 19 19 20
14 17 20 20 20 19 17 15 13 12 11 12 13 13 13 12 11 12 12 13 13 13 13 13 13 13 12 12 12 12 13 13 13 13 13 12 12 12 11 11 12 12 13 14 15 16 17 16 17 17 18 18 19 20 20 21 22 22 23 22 21 20 21
15 18 20 21 22 21 19 17 15 13 13 12 13 13 13 13 13 13 14 14 14 14 14 14 14 14 14 14 14 14 14 15 15 15 15 15 15 15 14 14 15 16 17 17 18 20 21 21 20 20 20 21 22 22 23 24 25 25 24 24 24 23 22
17 20 22 23 22 20 20 18 15 13 13 13 14 13 13 13 14 14 15 15 15 15 16 16 16 16 16 16 17 17 17 18 19 18 18 18 18 18 18 18 18 19 20 20 20 21 21 22 22 22 22 23 24 24 25 26 27 27 27 26 26 25 24
15 17 21 22 20 18 17 16 15 13 12 13 14 14 13 14 14 15 15 16 16 16 17 17 17 17 18 18 18 19 19 20 21 21 21 21 21 22 22 21 22 22 23 23 22 22 22 23 23 24 24 25 26 26 27 28 29 30 30 29 29 28 27
14 15 17 18 17 16 16 15 14 13 12 13 14 15 14 14 15 15 16 17 17 17 17 18 18 18 18 19 20 21 21 23 24 24 24 25 25 25 25 25 25 25 25 24 24 24 25 24 25 25 26 27 28 29 30 31 33 33 33 32 31 30 28
13 14 15 16 17 17 16 16 16 16 15 15 15 15 15 15 15 16 17 17 17 17 17 18 19 19 19 20 21 22 24 25 26 27 27 27 28 27 27 27 26 26 26 26 26 26 26 26 27 28 29 30 31 32 33 34 35 35 34 33 31 30 29
12 13 14 15 15 15 15 16 18 19 19 19 18 17 16 16 16 16 16 16 16 16 16 17 18 19 20 21 23 24 26 27 28 28 29 29 30 29 28 28 28 28 28 28 28 28 28 29 30 31 32 33 33 33 34 35 35 35 33 32 30 30 30
14 14 14 14 15 15 15 16 18 19 19 18 17 18 18 17 17 17 17 17 17 16 16 17 17 18 19 21 23 24 25 26 27 27 27 29 30 28 27 28 29 29 30 30 30 31 31 31 32 32 33 33 33 33 34 34 33 32 30 28 28 29 30
16 16 16 16 17 17 18 18 19 19 19 17 17 18 18 18 18 19 19 19 18 18 18 17 17 18 19 20 21 22 23 25 25 26 26 28 30 30 28 28 29 30 31 31 32 33 33 33 33 33 33 33 32 33 34 32 31 30 28 27 28 28 29
14 15 15 16 16 17 18 18 18 19 20 20 21 21 21 21 20 20 21 21 21 21 20 19 19 20 20 21 22 23 24 26 27 28 30 31 31 32 32 31 30 31 31 30 31 33 33 34 33 33 34 33 32 32 33 31 29 28 27 26 27 27 28
14 15 15 16 17 18 19 19 20 21 22 23 23 24 24 24 24 24 24 24 24 24 25 24 24 24 24 24 25 26 28 30 30 31 32 33 32 33 34 33 32 32 31 30 32 33 34 34 34 34 34 33 33 33 31 28 26 26 26 26 26 26 27
17 18 19 19 20 21 22 23 23 24 25 26 26 26 27 27 27 27 27 27 27 28 29 29 28 28 28 29 30 31 32 33 34 34 35 35 35 35 36 35 33 33 33 34 34 35 36 37 35 34 33 34 34 32 29 26 26 26 26 26 26 26 26
22 23 24 24 25 25 26 26 27 27 28 29 30 30 31 31 32 32 32 32 33 33 34 34 35 34 34 34 35 36 36 37 37 37 38 39 39 38 37 35 34 34 36 36 36 37 38 38 36 34 34 34 32 28 27 26 27 27 26 26 26 26 26
26 27 28 28 29 29 29 30 30 31 32 33 34 34 35 36 37 37 38 39 40 40 41 41 41 40 39 39 38 39 39 39 39 39 40 40 39 37 35 34 34 35 36 36 36 37 38 36 35 35 35 32 29 28 28 28 28 27 26 26 25 25 24
29 29 30 31 32 33 34 34 35 35 36 37 38 38 39 40 41 42 42 43 44 45 46 45 45 44 43 42 41 41 40 40 39 40 41 40 38 36 35 34 34 35 36 36 36 37 36 35 35 35 34 32 30 30 30 29 28 27 26 26 25 25 24
31 32 33 33 34 36 36 37 38 39 40 40 41 42 43 43 44 45 45 45 46 47 47 48 48 47 46 44 43 42 41 41 40 41 41 41 39 37 35 34 33 33 33 34 34 35 35 36 35 35 34 32 30 29 29 28 28 27 27 26 25 25 25

ECMWFFLT1_700_spd_045.txt.gz
Wind_Speed
18 16 14 11 9 7 5 4 4 4 4 4 5 5 5 6 6 6 6 6 6 6 8 10 12 12 13 14 13 13 13 13 13 13 13 12 11 10 10 9 9 9 8 8 9 8 6 6 7 9 9 9 8 8 8 6 5 6 6 5 4 4 5
18 15 12 10 8 6 5 4 3 2 3 4 5 6 7 8 8 9 9 9 8 7 7 9 11 12 13 14 13 12 13 13 13 13 13 13 11 11 11 10 10 9 9 9 9 8 8 8 8 8 8 8 8 9 8 7 6 6 6 5 4 5 6
17 14 12 9 7 6 5 3 2 1 2 4 5 7 8 9 10 10 10 11 11 9 7 7 9 11 13 14 14 13 13 13 13 13 13 12 12 11 11 11 9 9 9 7 7 8 9 10 10 9 7 7 8 8 8 7 7 7 6 5 5 5 6
16 13 10 8 6 5 4 3 1 1 3 4 6 7 8 10 11 12 12 12 12 11 8 8 8 9 10 12 13 14 13 13 13 13 12 12 11 11 10 10 9 9 9 9 8 8 8 9 10 10 8 8 8 8 8 7 7 9 7 5 6 6 5
14 11 9 7 5 4 3 2 0 2 4 6 7 7 8 9 11 13 13 13 13 12 9 8 8 8 8 9 10 12 13 14 14 14 13 12 11 11 10 9 9 9 10 9 9 9 9 9 10 9 8 8 9 8 8 8 9 10 8 6 7 7 5
14 12 10 8 5 3 2 1 2 4 6 8 9 9 9 9 9 11 12 13 13 12 10 8 8 8 8 8 8 9 10 12 14 14 14 13 12 12 11 10 10 10 10 9 9 9 9 10 10 9 7 8 9 9 9 9 10 10 8 7 6 5 4
15 13 11 8 6 4 3 2 3 5 7 9 9 9 9 9 7 7 8 11 12 10 9 8 9 9 8 8 8 8 9 10 13 14 13 13 12 12 12 11 11 11 10 9 8 8 9 9 8 7 7 7 8 9 10 10 11 10 9 7 5 3 3
16 13 11 10 8 5 5 5 5 6 8 10 10 8 8 7 5 3 3 6 9 8 8 8 8 9 9 8 8 7 7 8 10 12 13 13 12 12 12 11 11 11 9 8 8 9 9 9 7 7 7 7 5 8 10 11 11 10 8 6 4 2 2
17 15 13 11 8 6 6 7 8 8 9 11 10 8 7 6 3 1 1 4 6 7 7 8 8 8 8 7 7 6 6 6 8 10 11 11 12 12 11 11 11 10 9 9 9 9 8 7 7 8 8 8 6 7 9 10 10 9 7 5 3 2 2
18 16 14 12 9 7 7 8 8 8 9 10 10 8 7 6 4 2 2 3 5 7 7 7 7 6 6 6 6 6 6 6 7 8 9 10 10 10 10 11 11 10 9 9 8 7 6 5 6 7 7 7 8 9 9 8 7 7 7 5 2 2 2
19 17 15 13 10 9 9 8 8 8 8 10 10 8 7 6 4 3 3 4 5 6 7 7 6 6 6 6 6 7 7 6 6 6 8 8 8 8 9 10 10 10 9 8 7 6 6 6 6 5 5 7 9 10 9 7 6 6 6 4 2 2 2
20 18 15 13 11 10 10 9 9 9 9 10 9 8 7 6 4 3 3 4 4 6 7 7 7 7 7 7 7 7 8 7 7 7 8 9 9 9 10 9 9 9 9 9 8 7 7 7 7 6 7 9 10 10 8 7 7 7 5 4 3 3 4
21 19 15 13 13 12 12 11 10 9 10 10 10 9 8 7 5 4 3 4 6 7 7 7 7 8 8 8 9 9 9 8 8 8 9 9 10 11 11 10 10 10 10 9 9 8 8 8 8 9 9 10 9 9 8 8 8 8 7 5 4 4 5
22 20 17 16 15 14 13 13 11 10 11 11 10 9 9 8 6 5 5 6 7 8 8 8 8 9 9 9 10 10 10 9 9 9 10 10 10 11 11 11 11 10 10 10 9 9 9 9 10 11 11 9 9 9 9 9 9 8 7 6 6 6 7
26 24 22 20 18 17 15 13 12 11 11 11 10 10 9 8 7 6 6 7 8 9 10 10 10 10 10 10 11 11 11 11 10 10 10 10 10 10 10 11 10 10 11 11 10 10 10 11 12 12 12 11 11 11 11 11 10 8 7 6 6 7 8
30 29 27 24 21 19 17 15 14 13 12 11 10 10 9 8 7 7 8 8 9 10 10 11 10 10 11 11 11 12 12 12 12 11 11 10 10 10 10 10 11 11 11 11 12 11 10 10 10 10 10 10 9 9 9 8 8 7 5 5 5 7 9
31 30 28 27 25 22 19 18 16 14 12 12 11 11 10 8 7 8 9 10 10 11 10 11 11 11 11 11 12 12 13 13 13 12 11 10 10 10 10 10 11 10 10 10 9 8 7 5 4 4 4 4 4 4 5 5 5 5 5 5 7 9 11
30 29 28 28 27 25 23 21 17 14 13 13 13 11 9 8 8 9 10 11 12 11 11 11 11 11 11 12 12 12 13 13 14 13 12 11 10 9 9 9 9 8 8 6 6 5 3 2 1 2 3 3 4 5 6 6 7 7 7 8 9 10 12
31 30 29 30 31 30 27 23 19 16 14 14 14 11 9 8 9 10 12 13 12 12 12 12 12 12 12 12 12 12 13 13 13 13 12 11 10 9 8 7 6 6 5 4 3 2 2 3 4 5 6 7 7 8 9 9 10 10 11 12 12 13 14
31 30 30 32 33 31 28 24 20 17 15 15 14 12 9 9 10 11 12 13 13 12 13 12 12 13 13 13 13 12 12 12 12 12 12 11 10 9 8 6 5 4 3 3 3 4 5 6 7 8 9 10 11 11 12 12 12 13 14 15 16 17 18
25 26 29 32 31 29 26 22 19 17 15 15 15 13 11 11 12 13 13 13 13 13 13 12 12 13 13 13 13 13 12 12 11 11 11 11 10 9 8 7 6 6 6 6 7 8 9 10 11 11 12 13 14 15 15 15 16 17 18 19 20 21 22
16 16 19 23 25 23 21 20 18 17 15 16 17 15 13 13 13 14 14 14 14 14 14 14 14 14 14 13 13 13 13 12 12 11 11 11 10 9 9 8 9 9 10 10 11 12 13 14 15 15 16 17 17 18 18 19 20 21 22 22 23 24 25
10 10 11 15 18 17 19 20 19 18 16 17 18 17 15 15 14 15 16 15 15 15 15 15 15 15 15 14 14 14 14 13 13 13 13 12 12 11 11 12 12 13 13 13 14 15 16 16 17 18 19 20 21 21 22 22 22 23 24 25 26 27 27
11 12 13 16 19 20 21 23 21 19 17 18 18 17 16 16 15 15 16 16 17 17 17 17 17 17 17 16 16 15 15 15 15 15 15 14 14 15 15 16 16 16 16 16 17 17 18 19 20 21 21 22 23 24 24 24 24 25 26 27 27 28 29
14 15 16 18 20 23 24 23 20 19 18 18 18 18 18 18 18 18 17 17 17 18 18 18 18 18 18 18 18 18 18 18 18 18 18 17 18 18 19 19 19 19 19 20 20 21 21 22 23 23 24 24 25 25 26 27 27 28 28 28 29 30 30
13 15 17 18 21 25 24 21 19 19 19 19 19 18 19 19 20 21 20 20 19 19 19 19 19 20 20 20 20 21 21 21 21 21 21 21 22 22 22 22 22 22 23 24 24 25 25 25 26 26 27 27 28 28 29 30 30 30 30 31 32 33 33
9 12 15 18 21 23 22 20 20 20 19 20 20 19 19 20 20 21 22 22 22 22 21 21 21 21 21 21 22 23 24 24 24 24 25 25 26 26 26 26 26 26 26 27 28 28 28 28 28 29 29 30 30 30 31 31 31 32 34 35 36 36 36
8 9 13 17 20 20 20 20 21 21 19 19 20 19 18 19 19 20 21 22 22 23 23 23 23 23 24 24 25 25 26 27 27 27 27 28 28 28 28 29 29 29 29 29 30 30 30 31 31 32 32 32 32 33 33 34 35 36 37 37 38 38 38
9 10 12 15 17 19 19 20 21 22 21 19 20 20 19 19 19 19 20 21 21 22 22 23 23 24 25 26 28 29 29 30 30 30 30 30 31 30 30 31 31 31 31 31 31 32 33 34 35 35 34 34 34 35 36 36 37 37 38 39 39 38 38
10 11 13 14 16 17 17 17 18 20 20 19 20 21 21 21 21 21 21 22 23 23 23 23 23 24 25 26 28 29 31 32 32 32 32 32 32 32 32 31 31 32 32 32 32 33 36 38 38 36 35 35 35 36 37 37 37 38 39 40 41 40 38
12 13 14 16 17 17 17 17 18 18 19 19 20 22 22 23 24 25 26 26 26 25 24 25 25 26 26 27 27 28 30 31 31 32 32 32 32 33 33 31 30 31 32 32 33 35 37 40 41 37 34 35 36 37 37 37 38 39 40 41 41 41 40
17 17 17 18 19 19 19 19 20 20 21 22 23 24 25 27 28 29 29 29 29 28 27 27 28 29 28 29 29 30 30 30 31 31 31 31 33 35 34 31 31 33 34 34 36 37 38 41 43 39 35 36 37 37 37 38 40 41 42 41 41 41 41
19 20 20 21 21 21 21 21 22 23 24 25 26 27 28 29 30 31 31 31 31 31 31 31 31 32 32 32 32 33 33 33 33 33 33 34 36 38 38 35 34 36 36 37 38 39 39 41 42 41 39 39 39 38 38 39 41 43 43 42 41 40 38
20 21 21 22 22 22 23 23 24 24 25 26 27 28 29 30 30 31 32 33 34 34 35 35 35 35 35 35 35 36 37 37 37 36 37 38 40 42 42 40 39 38 38 39 39 40 41 41 42 43 42 41 40 40 40 40 42 43 43 43 42 40 37
22 22 22 23 23 24 25 25 26 27 28 29 29 30 31 32 32 33 34 35 36 36 37 37 37 36 37 37 37 39 39 40 40 40 41 42 43 44 44 43 42 41 40 40 40 41 41 40 40 41 41 41 41 42 42 42 42 43 43 44 43 39 36
26 26 27 27 27 28 29 30 31 31 32 33 33 34 35 36 37 37 37 38 39 40 40 41 41 41 41 42 42 43 44 44 44 45 46 46 46 46 46 46 45 44 44 43 42 41 41 40 39 38 38 39 41 42 43 44 44 43 42 42 40 37 34
30 30 30 30 30 30 31 32 33 34 35 36 37 37 38 39 40 41 41 42 42 43 44 45 46 46 47 47 47 48 48 48 48 48 49 50 49 48 48 48 48 47 47 46 45 44 42 41 39 38 38 40 41 42 43 44 44 41 38 36 35 31 28

ECMWFFLT1_700_spd_048.txt.gz
Wind_Speed
17 16 15 12 9 7 5 4 3 2 2 2 2 3 4 5 5 4 4 4 4 4 5 6 7 8 10 10 10 11 11 12 12 11 11 10 10 11 10 9 9 7 7 7 6 5 4 3 2 1 2 3 3 3 4 5 4 4 2 1 2 2 3
19 17 15 12 9 7 6 5 4 3 1 2 3 4 6 7 7 7 7 7 7 6 6 6 7 8 9 11 12 12 12 12 13 12 12 12 12 11 10 10 9 8 8 7 6 5 5 4 3 2 2 2 2 2 3 4 4 3 2 3 4 5 6
20 17 13 11 9 8 7 5 4 2 0 2 3 5 6 7 8 9 9 10 9 8 7 6 7 8 9 11 12 13 13 13 13 13 12 13 13 12 11 11 10 9 9 8 8 7 6 5 3 3 3 2 3 3 2 2 2 2 2 5 6 6 6
20 16 12 10 9 8 7 5 3 1 1 3 5 6 7 8 9 10 11 11 11 11 9 7 7 8 9 10 12 13 14 14 14 13 13 13 13 12 12 12 11 10 10 10 10 9 8 6 4 4 4 3 3 3 2 1 1 2 4 6 6 6 6
19 15 12 11 9 8 7 5 2 1 2 4 6 7 8 9 10 11 12 12 13 12 11 8 7 7 8 10 11 12 13 14 14 14 13 13 13 13 13 12 12 11 11 11 11 10 9 7 6 5 4 3 3 3 3 2 3 4 5 5 5 5 5
19 15 13 12 10 8 6 4 2 1 3 5 7 8 9 9 10 11 11 12 12 12 11 9 7 7 8 9 10 11 12 13 14 14 14 14 13 13 13 12 11 11 11 10 10 9 8 7 6 6 5 5 4 4 4 3 4 4 4 4 4 4 4
19 16 15 13 11 9 6 4 2 2 4 6 8 9 9 8 8 8 9 10 10 10 10 9 7 7 8 9 9 10 11 12 12 13 13 13 13 13 12 12 11 11 10 9 9 9 7 6 6 6 5 5 4 4 4 4 4 4 4 4 4 3 3
20 18 16 14 11 8 6 4 2 3 4 7 9 10 9 8 6 5 5 7 7 8 8 8 7 7 8 9 9 9 9 10 10 12 13 12 13 13 13 12 12 11 10 9 9 8 6 7 7 7 6 6 5 5 6 5 4 3 3 3 3 3 2
21 19 17 14 11 8 6 4 3 4 5 7 9 10 10 8 6 4 3 4 5 6 7 8 8 8 9 9 9 8 8 9 9 11 12 12 13 13 13 13 12 12 11 10 9 7 6 8 9 9 8 8 7 7 7 6 4 3 3 3 3 2 2
21 20 17 13 10 8 6 5 5 5 6 7 9 11 11 9 7 5 4 5 6 7 8 8 9 9 9 9 8 8 8 8 9 10 11 12 13 13 13 13 13 12 11 10 9 7 7 8 9 9 8 8 8 7 7 6 4 4 4 3 2 3 2
21 19 16 13 10 9 9 8 7 6 7 8 9 11 12 10 8 6 5 5 6 8 8 8 8 8 8 8 8 8 8 8 8 9 10 12 13 14 13 13 13 12 12 11 10 9 9 9 9 8 8 8 8 8 7 6 6 5 4 3 3 5 4
20 18 16 14 12 12 12 10 9 8 8 9 9 11 13 11 9 7 5 5 5 7 7 7 7 8 8 8 8 9 8 8 8 8 9 11 13 14 13 13 13 12 12 13 12 10 10 9 9 9 9 8 8 7 7 7 6 6 5 4 4 5 5
21 19 17 15 14 14 14 12 10 10 10 10 10 12 12 11 9 8 6 5 5 6 7 7 7 8 8 8 9 9 9 8 8 8 11 12 12 13 13 13 13 13 13 13 12 10 10 9 9 10 9 8 8 7 6 6 6 5 5 5 5 5 4
22 20 18 17 16 17 16 14 13 12 11 12 12 12 12 11 10 8 6 5 5 6 7 7 7 8 8 9 9 9 9 9 8 9 12 13 13 13 13 13 13 13 13 13 12 11 10 9 9 10 9 8 7 6 6 6 6 6 6 6 6 5 5
23 21 20 18 18 19 18 17 15 14 13 13 14 13 12 12 11 9 7 5 5 7 8 8 8 9 9 9 9 9 9 9 9 11 12 14 14 13 13 13 13 13 13 13 12 10 10 10 10 9 8 8 7 7 7 7 6 7 7 7 6 6 7
23 23 21 20 20 20 20 19 17 16 15 15 15 14 13 13 12 10 8 6 6 8 9 10 9 10 10 11 11 10 10 11 11 12 13 14 14 13 12 12 12 12 11 11 10 9 10 11 11 10 10 9 9 8 8 7 7 8 8 7 7 8 8
25 25 24 22 22 23 23 23 22 20 18 18 17 15 14 14 13 12 10 8 7 9 11 11 10 10 11 12 12 12 12 12 12 13 14 14 14 14 13 12 12 11 10 10 9 9 10 11 11 11 11 10 10 9 9 9 9 9 9 9 8 9 9
26 27 26 26 26 27 28 27 26 24 22 21 19 16 15 15 15 14 11 9 8 9 11 11 11 11 12 12 12 12 12 12 12 13 13 14 15 15 15 14 14 13 12 11 10 10 10 10 10 10 10 9 9 9 9 9 9 9 9 9 10 9 9
27 27 28 29 30 31 30 30 29 27 25 24 20 17 16 16 15 15 12 9 8 9 10 11 10 10 11 11 11 11 11 11 11 12 13 14 15 17 17 17 16 15 14 13 11 11 10 9 9 8 8 8 8 8 8 8 8 9 9 10 10 10 11
27 27 28 30 32 33 33 31 30 28 28 26 21 18 17 16 15 14 11 9 9 10 11 11 10 11 11 11 10 10 10 10 11 11 13 13 14 15 16 16 16 14 13 12 12 11 10 8 7 7 7 7 8 8 9 9 10 11 11 11 11 12 14
27 28 30 32 33 33 34 34 32 31 30 27 22 19 18 16 15 13 11 10 11 11 12 11 11 11 11 11 11 11 11 11 11 11 12 13 13 13 13 13 13 13 12 12 10 9 8 7 6 6 7 8 9 10 11 12 13 14 14 14 14 15 17
29 30 31 31 30 32 35 35 34 33 32 27 21 19 18 16 14 13 11 11 12 13 13 12 12 12 11 11 12 12 12 12 12 11 11 12 12 12 12 11 11 10 10 9 8 7 6 7 7 9 10 11 12 13 14 15 16 16 17 17 17 18 20
24 24 23 22 22 26 29 28 27 28 27 23 18 17 17 15 14 12 12 13 14 14 14 13 13 13 13 13 13 13 13 13 12 12 11 11 10 10 10 9 9 8 8 8 8 8 9 10 11 12 13 14 15 16 17 18 18 18 19 19 20 21 22
15 16 16 14 14 18 20 20 21 23 22 19 16 16 17 16 14 14 14 15 16 16 16 15 15 15 15 15 15 15 14 14 14 13 13 12 11 11 11 10 10 10 10 10 11 12 13 14 15 16 16 17 18 19 20 20 21 21 22 22 23 24 25
13 13 14 12 11 13 16 17 17 18 19 17 16 16 17 16 15 14 15 16 17 17 17 17 17 16 16 16 17 16 16 16 16 16 15 14 14 14 14 14 14 14 14 14 15 16 17 17 18 19 19 20 21 22 22 23 23 24 25 25 26 27 28
10 11 11 12 11 12 15 16 16 17 17 15 16 16 17 18 18 16 16 16 17 18 19 19 18 18 18 19 19 19 19 19 19 19 18 18 18 18 18 18 18 18 19 19 19 20 21 21 22 22 23 23 24 25 25 25 26 27 27 28 29 29 30
8 8 9 11 11 13 15 16 17 17 15 14 15 16 16 18 19 19 18 18 18 19 20 20 20 20 21 21 21 22 22 22 22 22 22 22 22 22 22 22 23 23 23 23 23 24 24 25 26 26 27 27 27 27 28 28 29 30 30 31 32 32 32
7 8 9 11 13 15 16 17 17 16 14 13 15 16 16 17 18 19 20 20 21 21 21 21 21 21 22 22 23 23 24 24 25 25 25 25 25 26 26 26 26 27 27 27 26 26 27 28 29 30 30 30 30 30 31 31 31 32 33 34 35 35 35
7 7 9 11 14 15 16 16 17 16 15 15 17 18 18 18 18 19 20 21 21 22 22 23 23 23 23 24 25 26 26 27 28 28 28 28 28 29 29 30 30 30 30 30 29 30 31 32 33 33 33 32 32 33 33 32 33 34 35 36 37 37 37
6 7 8 10 12 13 14 15 16 17 17 19 21 20 19 20 20 20 20 20 20 21 22 22 23 24 25 26 27 28 29 30 30 30 30 30 31 32 32 33 34 33 33 33 33 33 34 35 35 35 34 34 34 34 33 33 34 35 35 37 38 39 39
7 7 8 9 11 13 14 16 17 18 18 21 21 19 19 22 23 23 22 21 20 21 22 22 23 24 25 26 28 29 30 31 31 32 32 33 33 35 36 37 36 35 35 35 34 35 35 36 37 37 35 35 36 35 34 34 35 36 37 38 40 40 40
9 9 9 10 12 13 15 16 18 19 19 20 21 19 20 23 24 25 25 23 23 23 24 25 26 26 27 28 29 30 31 32 32 33 33 34 34 36 39 39 36 35 35 35 35 36 37 38 39 39 37 37 38 37 35 36 37 38 39 40 41 42 42
11 12 13 13 14 15 16 16 17 18 19 20 21 20 21 22 24 25 26 26 26 26 27 28 29 30 31 31 32 33 34 35 35 35 35 35 35 36 39 38 35 32 33 34 35 36 38 39 40 41 40 40 40 38 37 38 39 40 41 43 43 44 44
13 14 16 17 18 19 19 19 19 19 20 21 22 22 22 23 24 26 27 27 28 28 29 30 31 33 34 35 36 36 37 38 39 39 38 38 38 38 39 40 39 35 34 35 36 37 39 40 40 42 42 42 41 41 41 41 41 42 43 44 45 45 45
14 16 17 18 19 20 21 22 22 22 23 23 24 24 25 25 26 27 28 29 30 31 32 33 34 35 36 38 39 39 39 40 41 42 42 42 42 42 41 42 43 41 39 38 39 40 41 42 43 44 44 43 44 44 43 43 42 42 42 43 44 44 44
18 18 19 19 20 21 22 23 24 25 25 26 26 27 28 28 29 30 31 32 33 35 36 37 37 38 39 40 42 43 43 43 44 45 45 45 45 45 45 45 45 44 44 44 43 43 44 44 45 45 44 44 44 44 44 44 43 42 42 42 43 44 43
22 22 22 23 24 25 25 26 27 28 29 30 30 31 32 33 34 34 35 36 37 38 40 41 42 42 43 44 45 46 47 48 48 48 49 49 49 49 49 49 49 49 49 49 48 47 47 46 46 46 45 45 45 45 45 44 44 44 44 45 45 44 42